Wetterdaten: Freitag, 17.01.2020
Datum Zeit Temp. Aussen Temp. o. S. Temp +5cm Feuchte Auss Luftdruck Regen Sonnenschein Regendauer Solar Windben Empfang
17.01.2020 00:00 8,6 C 7,8 C 7,2 C 89 % 1020,5 hPa 0,0 l/m 0 min 0 min 0 W/m 32,2 km/h (5 Bft) 95,74 %
17.01.2020 00:02 8,5 C 7,8 C 7,2 C 89 % 1020,5 hPa 0,0 l/m 0 min 0 min 0 W/m 25,7 km/h (4 Bft) 95,12 %
17.01.2020 00:04 8,5 C 7,8 C 7,2 C 88 % 1020,5 hPa 0,0 l/m 0 min 0 min 0 W/m 29,0 km/h (5 Bft) 97,87 %
17.01.2020 00:08 8,5 C 7,8 C 7,2 C 88 % 1020,4 hPa 0,0 l/m 0 min 0 min 0 W/m 29,0 km/h (5 Bft) 96,81 %
17.01.2020 00:10 8,5 C 7,8 C 7,2 C 88 % 1020,4 hPa 0,0 l/m 0 min 0 min 0 W/m 22,5 km/h (4 Bft) 97,83 %
17.01.2020 00:12 8,5 C 7,8 C 6,7 C 88 % 1020,4 hPa 0,0 l/m 0 min 0 min 0 W/m 19,3 km/h (3 Bft) 97,87 %
17.01.2020 00:14 8,4 C 7,2 C 6,7 C 88 % 1020,4 hPa 0,0 l/m 0 min 0 min 0 W/m 19,3 km/h (3 Bft) 97,87 %
17.01.2020 00:16 8,4 C 7,2 C 6,7 C 88 % 1020,4 hPa 0,0 l/m 0 min 0 min 0 W/m 22,5 km/h (4 Bft) 95,74 %
17.01.2020 00:18 8,4 C 7,2 C 6,7 C 88 % 1020,3 hPa 0,0 l/m 0 min 0 min 0 W/m 19,3 km/h (3 Bft) 95,74 %
17.01.2020 00:20 8,4 C 7,2 C 6,7 C 88 % 1020,2 hPa 0,0 l/m 0 min 0 min 0 W/m 25,7 km/h (4 Bft) 97,87 %
17.01.2020 00:22 8,4 C 7,8 C 6,7 C 89 % 1020,2 hPa 0,0 l/m 0 min 0 min 0 W/m 25,7 km/h (4 Bft) 97,83 %
17.01.2020 00:24 8,3 C 7,8 C 6,7 C 89 % 1020,2 hPa 0,0 l/m 0 min 0 min 0 W/m 22,5 km/h (4 Bft) 97,87 %
17.01.2020 00:26 8,3 C 7,8 C 6,7 C 89 % 1020,3 hPa 0,0 l/m 0 min 0 min 0 W/m 29,0 km/h (5 Bft) 97,87 %
17.01.2020 00:28 8,3 C 7,8 C 6,7 C 89 % 1020,3 hPa 0,0 l/m 0 min 0 min 0 W/m 22,5 km/h (4 Bft) 97,87 %
17.01.2020 00:30 8,3 C 7,8 C 6,7 C 89 % 1020,3 hPa 0,0 l/m 0 min 0 min 0 W/m 22,5 km/h (4 Bft) 97,87 %
17.01.2020 00:32 8,3 C 7,8 C 6,7 C 89 % 1020,2 hPa 0,0 l/m 0 min 0 min 0 W/m 19,3 km/h (3 Bft) 97,87 %
17.01.2020 00:34 8,3 C 7,8 C 6,7 C 89 % 1020,2 hPa 0,0 l/m 0 min 0 min 0 W/m 12,9 km/h (3 Bft) 97,83 %
17.01.2020 00:36 8,3 C 7,8 C 6,7 C 89 % 1020,1 hPa 0,0 l/m 0 min 0 min 0 W/m 22,5 km/h (4 Bft) 97,87 %
17.01.2020 00:38 8,3 C 7,8 C 6,7 C 89 % 1020,1 hPa 0,0 l/m 0 min 0 min 0 W/m 22,5 km/h (4 Bft) 100,00 %
17.01.2020 00:40 8,3 C 7,8 C 6,7 C 89 % 1020,1 hPa 0,0 l/m 0 min 0 min 0 W/m 22,5 km/h (4 Bft) 97,87 %
17.01.2020 00:42 8,3 C 7,8 C 6,7 C 89 % 1020,1 hPa 0,0 l/m 0 min 0 min 0 W/m 29,0 km/h (5 Bft) 100,00 %
17.01.2020 00:44 8,4 C 7,8 C 6,7 C 89 % 1020,1 hPa 0,0 l/m 0 min 0 min 0 W/m 29,0 km/h (5 Bft) 100,00 %
17.01.2020 00:46 8,3 C 7,8 C 7,2 C 89 % 1020,1 hPa 0,0 l/m 0 min 0 min 0 W/m 35,4 km/h (5 Bft) 100,00 %
17.01.2020 00:48 8,4 C 7,8 C 7,2 C 89 % 1020,0 hPa 0,0 l/m 0 min 0 min 0 W/m 29,0 km/h (5 Bft) 100,00 %
17.01.2020 00:50 8,4 C 7,8 C 7,2 C 89 % 1020,1 hPa 0,0 l/m 0 min 0 min 0 W/m 22,5 km/h (4 Bft) 97,87 %
17.01.2020 00:52 8,4 C 7,8 C 7,2 C 89 % 1020,0 hPa 0,0 l/m 0 min 0 min 0 W/m 29,0 km/h (5 Bft) 100,00 %
17.01.2020 00:54 8,4 C 7,8 C 7,2 C 88 % 1020,0 hPa 0,0 l/m 0 min 0 min 0 W/m 38,6 km/h (5 Bft) 97,87 %
17.01.2020 00:56 8,4 C 7,8 C 7,2 C 88 % 1020,0 hPa 0,0 l/m 0 min 0 min 0 W/m 35,4 km/h (5 Bft) 100,00 %
17.01.2020 00:58 8,5 C 7,8 C 7,2 C 88 % 1020,0 hPa 0,0 l/m 0 min 0 min 0 W/m 35,4 km/h (5 Bft) 100,00 %
17.01.2020 01:00 8,5 C 7,8 C 7,2 C 88 % 1019,9 hPa 0,0 l/m 0 min 0 min 0 W/m 22,5 km/h (4 Bft) 100,00 %
17.01.2020 01:02 8,6 C 7,8 C 7,2 C 88 % 1019,9 hPa 0,0 l/m 0 min 0 min 0 W/m 25,7 km/h (4 Bft) 97,87 %
17.01.2020 01:04 8,6 C 7,8 C 7,2 C 88 % 1019,9 hPa 0,0 l/m 0 min 0 min 0 W/m 32,2 km/h (5 Bft) 100,00 %
17.01.2020 01:06 8,6 C 8,3 C 7,2 C 88 % 1019,9 hPa 0,0 l/m 0 min 0 min 0 W/m 38,6 km/h (5 Bft) 100,00 %
17.01.2020 01:08 8,6 C 8,3 C 7,2 C 88 % 1019,9 hPa 0,0 l/m 0 min 0 min 0 W/m 35,4 km/h (5 Bft) 100,00 %
17.01.2020 01:10 8,7 C 8,3 C 7,2 C 88 % 1019,9 hPa 0,0 l/m 0 min 0 min 0 W/m 29,0 km/h (5 Bft) 100,00 %
17.01.2020 01:12 8,7 C 7,8 C 7,2 C 88 % 1019,9 hPa 0,0 l/m 0 min 0 min 0 W/m 29,0 km/h (5 Bft) 97,87 %
17.01.2020 01:14 8,7 C 7,8 C 7,2 C 87 % 1019,8 hPa 0,0 l/m 0 min 0 min 0 W/m 35,4 km/h (5 Bft) 100,00 %
17.01.2020 01:16 8,7 C 7,8 C 7,2 C 87 % 1019,8 hPa 0,0 l/m 0 min 0 min 0 W/m 29,0 km/h (5 Bft) 100,00 %
17.01.2020 01:18 8,7 C 7,8 C 7,2 C 87 % 1019,9 hPa 0,0 l/m 0 min 0 min 0 W/m 29,0 km/h (5 Bft) 100,00 %
17.01.2020 01:20 8,7 C 7,8 C 7,2 C 87 % 1019,8 hPa 0,0 l/m 0 min 0 min 0 W/m 25,7 km/h (4 Bft) 100,00 %
17.01.2020 01:22 8,7 C 7,8 C 7,2 C 87 % 1019,8 hPa 0,0 l/m 0 min 0 min 0 W/m 19,3 km/h (3 Bft) 95,74 %
17.01.2020 01:24 8,7 C 7,8 C 7,2 C 87 % 1019,8 hPa 0,0 l/m 0 min 0 min 0 W/m 19,3 km/h (3 Bft) 95,74 %
17.01.2020 01:26 8,7 C 7,8 C 7,2 C 87 % 1019,7 hPa 0,0 l/m 0 min 0 min 0 W/m 22,5 km/h (4 Bft) 97,87 %
17.01.2020 01:28 8,6 C 7,8 C 7,2 C 87 % 1019,7 hPa 0,0 l/m 0 min 0 min 0 W/m 19,3 km/h (3 Bft) 97,73 %
17.01.2020 01:30 8,6 C 7,8 C 6,7 C 87 % 1019,7 hPa 0,0 l/m 0 min 0 min 0 W/m 19,3 km/h (3 Bft) 95,92 %
17.01.2020 01:32 8,6 C 7,8 C 6,7 C 87 % 1019,6 hPa 0,0 l/m 0 min 0 min 0 W/m 25,7 km/h (4 Bft) 97,87 %
17.01.2020 01:34 8,6 C 7,8 C 6,7 C 87 % 1019,6 hPa 0,0 l/m 0 min 0 min 0 W/m 25,7 km/h (4 Bft) 97,87 %
17.01.2020 01:36 8,6 C 7,8 C 6,7 C 87 % 1019,5 hPa 0,0 l/m 0 min 0 min 0 W/m 22,5 km/h (4 Bft) 97,87 %
17.01.2020 01:38 8,5 C 7,8 C 6,7 C 87 % 1019,5 hPa 0,0 l/m 0 min 0 min 0 W/m 19,3 km/h (3 Bft) 95,74 %
17.01.2020 01:40 8,5 C 7,8 C 6,7 C 87 % 1019,5 hPa 0,0 l/m 0 min 0 min 0 W/m 19,3 km/h (3 Bft) 97,73 %
17.01.2020 01:42 8,4 C 7,2 C 6,7 C 88 % 1019,4 hPa 0,0 l/m 0 min 0 min 0 W/m 19,3 km/h (3 Bft) 95,92 %
17.01.2020 01:44 8,4 C 7,2 C 6,7 C 88 % 1019,4 hPa 0,0 l/m 0 min 0 min 0 W/m 22,5 km/h (4 Bft) 97,87 %
17.01.2020 01:46 8,4 C 7,8 C 6,7 C 87 % 1019,4 hPa 0,0 l/m 0 min 0 min 0 W/m 29,0 km/h (5 Bft) 97,87 %
17.01.2020 01:48 8,4 C 7,8 C 6,7 C 88 % 1019,4 hPa 0,0 l/m 0 min 0 min 0 W/m 22,5 km/h (4 Bft) 100,00 %
17.01.2020 01:50 8,4 C 7,8 C 6,7 C 88 % 1019,3 hPa 0,0 l/m 0 min 0 min 0 W/m 22,5 km/h (4 Bft) 97,87 %
17.01.2020 01:52 8,4 C 7,8 C 6,7 C 88 % 1019,3 hPa 0,0 l/m 0 min 0 min 0 W/m 19,3 km/h (3 Bft) 95,74 %
17.01.2020 01:54 8,4 C 7,8 C 6,7 C 88 % 1019,3 hPa 0,0 l/m 0 min 0 min 0 W/m 22,5 km/h (4 Bft) 95,65 %
17.01.2020 01:56 8,4 C 7,8 C 6,7 C 88 % 1019,3 hPa 0,0 l/m 0 min 0 min 0 W/m 19,3 km/h (3 Bft) 97,87 %
17.01.2020 01:58 8,4 C 7,8 C 6,7 C 88 % 1019,2 hPa 0,0 l/m 0 min 0 min 0 W/m 25,7 km/h (4 Bft) 97,87 %
17.01.2020 02:00 8,4 C 7,8 C 6,7 C 88 % 1019,1 hPa 0,0 l/m 0 min 0 min 0 W/m 25,7 km/h (4 Bft) 97,87 %
17.01.2020 02:02 8,4 C 7,8 C 6,7 C 88 % 1019,1 hPa 0,0 l/m 0 min 0 min 0 W/m 16,1 km/h (3 Bft) 97,87 %
17.01.2020 02:04 8,4 C 7,8 C 6,7 C 88 % 1019,1 hPa 0,0 l/m 0 min 0 min 0 W/m 22,5 km/h (4 Bft) 97,83 %
17.01.2020 02:06 8,4 C 7,8 C 6,7 C 88 % 1019,0 hPa 0,0 l/m 0 min 0 min 0 W/m 25,7 km/h (4 Bft) 97,87 %
17.01.2020 02:08 8,3 C 7,8 C 6,7 C 88 % 1019,0 hPa 0,0 l/m 0 min 0 min 0 W/m 19,3 km/h (3 Bft) 95,74 %
17.01.2020 02:10 8,3 C 7,8 C 6,7 C 88 % 1018,9 hPa 0,0 l/m 0 min 0 min 0 W/m 19,3 km/h (3 Bft) 97,87 %
17.01.2020 02:12 8,3 C 7,8 C 6,7 C 88 % 1018,9 hPa 0,0 l/m 0 min 0 min 0 W/m 25,7 km/h (4 Bft) 100,00 %
17.01.2020 02:14 8,3 C 7,8 C 6,7 C 88 % 1018,8 hPa 0,0 l/m 0 min 0 min 0 W/m 19,3 km/h (3 Bft) 100,00 %
17.01.2020 02:16 8,3 C 7,8 C 6,7 C 88 % 1018,9 hPa 0,0 l/m 0 min 0 min 0 W/m 22,5 km/h (4 Bft) 100,00 %
17.01.2020 02:18 8,3 C 7,8 C 6,7 C 88 % 1018,9 hPa 0,0 l/m 0 min 0 min 0 W/m 22,5 km/h (4 Bft) 97,83 %
17.01.2020 02:20 8,3 C 7,8 C 6,7 C 88 % 1018,8 hPa 0,0 l/m 0 min 0 min 0 W/m 25,7 km/h (4 Bft) 97,87 %
17.01.2020 02:22 8,3 C 7,8 C 6,7 C 88 % 1018,9 hPa 0,0 l/m 0 min 0 min 0 W/m 19,3 km/h (3 Bft) 97,87 %
17.01.2020 02:24 8,3 C 7,8 C 6,7 C 88 % 1018,9 hPa 0,0 l/m 0 min 0 min 0 W/m 29,0 km/h (5 Bft) 97,87 %
17.01.2020 02:26 8,3 C 7,8 C 6,7 C 88 % 1018,8 hPa 0,0 l/m 0 min 0 min 0 W/m 29,0 km/h (5 Bft) 97,87 %
17.01.2020 02:28 8,3 C 7,8 C 6,7 C 88 % 1018,7 hPa 0,0 l/m 0 min 0 min 0 W/m 25,7 km/h (4 Bft) 97,87 %
17.01.2020 02:30 8,3 C 7,8 C 6,7 C 88 % 1018,7 hPa 0,0 l/m 0 min 0 min 0 W/m 25,7 km/h (4 Bft) 95,65 %
17.01.2020 02:32 8,3 C 7,8 C 6,7 C 88 % 1018,6 hPa 0,0 l/m 0 min 0 min 0 W/m 25,7 km/h (4 Bft) 97,87 %
17.01.2020 02:34 8,3 C 7,8 C 7,2 C 88 % 1018,6 hPa 0,0 l/m 0 min 0 min 0 W/m 29,0 km/h (5 Bft) 95,74 %
17.01.2020 02:36 8,3 C 7,8 C 7,2 C 88 % 1018,6 hPa 0,0 l/m 0 min 0 min 0 W/m 29,0 km/h (5 Bft) 93,62 %
17.01.2020 02:38 8,3 C 7,8 C 7,2 C 88 % 1018,6 hPa 0,0 l/m 0 min 0 min 0 W/m 22,5 km/h (4 Bft) 93,62 %
17.01.2020 02:40 8,3 C 7,8 C 7,2 C 88 % 1018,6 hPa 0,0 l/m 0 min 0 min 0 W/m 29,0 km/h (5 Bft) 95,74 %
17.01.2020 02:42 8,3 C 7,8 C 6,7 C 88 % 1018,7 hPa 0,0 l/m 0 min 0 min 0 W/m 25,7 km/h (4 Bft) 95,65 %
17.01.2020 02:44 8,3 C 7,8 C 7,2 C 88 % 1018,7 hPa 0,0 l/m 0 min 0 min 0 W/m 25,7 km/h (4 Bft) 95,74 %
17.01.2020 02:46 8,3 C 7,8 C 7,2 C 88 % 1018,7 hPa 0,0 l/m 0 min 0 min 0 W/m 16,1 km/h (3 Bft) 48,72 %
17.01.2020 02:48 8,4 C 7,8 C 7,2 C 87 % 1018,7 hPa 0,0 l/m 0 min 0 min 0 W/m 25,7 km/h (4 Bft) 93,62 %
17.01.2020 02:50 8,4 C 7,8 C 6,7 C 87 % 1018,6 hPa 0,0 l/m 0 min 0 min 0 W/m 22,5 km/h (4 Bft) 95,74 %
17.01.2020 02:52 8,4 C 7,8 C 6,7 C 88 % 1018,7 hPa 0,0 l/m 0 min 0 min 0 W/m 22,5 km/h (4 Bft) 95,74 %
17.01.2020 02:54 8,3 C 7,8 C 6,7 C 87 % 1018,6 hPa 0,0 l/m 0 min 0 min 0 W/m 25,7 km/h (4 Bft) 93,48 %
17.01.2020 02:56 8,3 C 7,8 C 6,7 C 87 % 1018,6 hPa 0,0 l/m 0 min 0 min 0 W/m 22,5 km/h (4 Bft) 97,87 %
17.01.2020 02:58 8,3 C 7,8 C 6,7 C 87 % 1018,5 hPa 0,0 l/m 0 min 0 min 0 W/m 19,3 km/h (3 Bft) 97,87 %
17.01.2020 03:00 8,3 C 7,2 C 6,7 C 87 % 1018,5 hPa 0,0 l/m 0 min 0 min 0 W/m 32,2 km/h (5 Bft) 95,74 %
17.01.2020 03:02 8,3 C 7,2 C 6,7 C 87 % 1018,5 hPa 0,0 l/m 0 min 0 min 0 W/m 25,7 km/h (4 Bft) 93,62 %
17.01.2020 03:04 8,3 C 7,8 C 6,7 C 87 % 1018,4 hPa 0,0 l/m 0 min 0 min 0 W/m 22,5 km/h (4 Bft) 93,62 %
17.01.2020 03:06 8,3 C 7,8 C 6,7 C 87 % 1018,4 hPa 0,0 l/m 0 min 0 min 0 W/m 22,5 km/h (4 Bft) 95,65 %
17.01.2020 03:08 8,3 C 7,8 C 6,7 C 87 % 1018,4 hPa 0,0 l/m 0 min 0 min 0 W/m 25,7 km/h (4 Bft) 95,74 %
17.01.2020 03:10 8,3 C 7,8 C 6,7 C 87 % 1018,4 hPa 0,0 l/m 0 min 0 min 0 W/m 25,7 km/h (4 Bft) 95,74 %
17.01.2020 03:12 8,3 C 7,2 C 6,7 C 87 % 1018,3 hPa 0,0 l/m 0 min 0 min 0 W/m 22,5 km/h (4 Bft) 93,62 %
17.01.2020 03:14 8,3 C 7,2 C 6,7 C 87 % 1018,3 hPa 0,0 l/m 0 min 0 min 0 W/m 19,3 km/h (3 Bft) 97,87 %
17.01.2020 03:16 8,3 C 7,2 C 6,7 C 87 % 1018,3 hPa 0,0 l/m 0 min 0 min 0 W/m 25,7 km/h (4 Bft) 95,74 %
17.01.2020 03:18 8,3 C 7,2 C 6,7 C 87 % 1018,3 hPa 0,0 l/m 0 min 0 min 0 W/m 25,7 km/h (4 Bft) 100,00 %
17.01.2020 03:20 8,3 C 7,2 C 6,7 C 87 % 1018,3 hPa 0,0 l/m 0 min 0 min 0 W/m 25,7 km/h (4 Bft) 100,00 %
17.01.2020 03:22 8,3 C 7,2 C 6,7 C 87 % 1018,2 hPa 0,0 l/m 0 min 0 min 0 W/m 25,7 km/h (4 Bft) 97,87 %
17.01.2020 03:24 8,3 C 7,2 C 6,7 C 87 % 1018,2 hPa 0,0 l/m 0 min 0 min 0 W/m 22,5 km/h (4 Bft) 97,87 %
17.01.2020 03:26 8,3 C 7,2 C 6,7 C 87 % 1018,2 hPa 0,0 l/m 0 min 0 min 0 W/m 19,3 km/h (3 Bft) 100,00 %
17.01.2020 03:28 8,3 C 7,2 C 6,7 C 87 % 1018,2 hPa 0,0 l/m 0 min 0 min 0 W/m 19,3 km/h (3 Bft) 100,00 %
17.01.2020 03:30 8,3 C 7,2 C 6,7 C 87 % 1018,2 hPa 0,0 l/m 0 min 0 min 0 W/m 25,7 km/h (4 Bft) 97,87 %
17.01.2020 03:32 8,3 C 7,2 C 6,7 C 87 % 1018,1 hPa 0,0 l/m 0 min 0 min 0 W/m 16,1 km/h (3 Bft) 100,00 %
17.01.2020 03:34 8,2 C 7,2 C 6,7 C 87 % 1018,2 hPa 0,0 l/m 0 min 0 min 0 W/m 25,7 km/h (4 Bft) 97,87 %
17.01.2020 03:36 8,2 C 7,2 C 6,7 C 87 % 1018,1 hPa 0,0 l/m 0 min 0 min 0 W/m 25,7 km/h (4 Bft) 100,00 %
17.01.2020 03:38 8,2 C 7,2 C 6,7 C 87 % 1018,0 hPa 0,0 l/m 0 min 0 min 0 W/m 19,3 km/h (3 Bft) 100,00 %
17.01.2020 03:40 8,2 C 7,2 C 6,7 C 87 % 1018,0 hPa 0,0 l/m 0 min 0 min 0 W/m 19,3 km/h (3 Bft) 97,83 %
17.01.2020 03:42 8,2 C 7,2 C 6,7 C 87 % 1018,0 hPa 0,0 l/m 0 min 0 min 0 W/m 25,7 km/h (4 Bft) 100,00 %
17.01.2020 03:44 8,2 C 7,2 C 6,7 C 87 % 1018,0 hPa 0,0 l/m 0 min 0 min 0 W/m 16,1 km/h (3 Bft) 100,00 %
17.01.2020 03:46 8,2 C 7,2 C 6,7 C 87 % 1018,0 hPa 0,0 l/m 0 min 0 min 0 W/m 29,0 km/h (5 Bft) 100,00 %
17.01.2020 03:48 8,2 C 7,2 C 6,7 C 88 % 1017,9 hPa 0,0 l/m 0 min 0 min 0 W/m 22,5 km/h (4 Bft) 100,00 %
17.01.2020 03:50 8,2 C 7,2 C 6,7 C 87 % 1017,9 hPa 0,0 l/m 0 min 0 min 0 W/m 16,1 km/h (3 Bft) 100,00 %
17.01.2020 03:52 8,2 C 7,2 C 6,7 C 87 % 1017,9 hPa 0,0 l/m 0 min 0 min 0 W/m 25,7 km/h (4 Bft) 97,83 %
17.01.2020 03:54 8,2 C 7,2 C 6,7 C 87 % 1017,8 hPa 0,0 l/m 0 min 0 min 0 W/m 29,0 km/h (5 Bft) 100,00 %
17.01.2020 03:56 8,2 C 7,8 C 6,7 C 87 % 1017,8 hPa 0,0 l/m 0 min 0 min 0 W/m 32,2 km/h (5 Bft) 100,00 %
17.01.2020 03:58 8,2 C 7,8 C 6,7 C 87 % 1017,8 hPa 0,0 l/m 0 min 0 min 0 W/m 29,0 km/h (5 Bft) 97,87 %
17.01.2020 04:00 8,2 C 7,2 C 6,7 C 87 % 1017,7 hPa 0,0 l/m 0 min 0 min 0 W/m 19,3 km/h (3 Bft) 100,00 %
17.01.2020 04:02 8,2 C 7,8 C 6,7 C 87 % 1017,7 hPa 0,0 l/m 0 min 0 min 0 W/m 19,3 km/h (3 Bft) 100,00 %
17.01.2020 04:04 8,2 C 7,8 C 6,7 C 87 % 1017,6 hPa 0,0 l/m 0 min 0 min 0 W/m 25,7 km/h (4 Bft) 100,00 %
17.01.2020 04:06 8,2 C 7,8 C 7,2 C 87 % 1017,7 hPa 0,0 l/m 0 min 0 min 0 W/m 29,0 km/h (5 Bft) 100,00 %
17.01.2020 04:08 8,2 C 7,8 C 6,7 C 87 % 1017,6 hPa 0,0 l/m 0 min 0 min 0 W/m 25,7 km/h (4 Bft) 93,62 %
17.01.2020 04:10 8,3 C 7,8 C 6,7 C 87 % 1017,5 hPa 0,0 l/m 0 min 0 min 0 W/m 29,0 km/h (5 Bft) 100,00 %
17.01.2020 04:12 8,3 C 7,8 C 7,2 C 87 % 1017,6 hPa 0,0 l/m 0 min 0 min 0 W/m 35,4 km/h (5 Bft) 100,00 %
17.01.2020 04:14 8,3 C 7,8 C 6,7 C 87 % 1017,6 hPa 0,0 l/m 0 min 0 min 0 W/m 29,0 km/h (5 Bft) 97,87 %
17.01.2020 04:16 8,3 C 7,8 C 6,7 C 87 % 1017,5 hPa 0,0 l/m 0 min 0 min 0 W/m 29,0 km/h (5 Bft) 95,74 %
17.01.2020 04:18 8,3 C 7,8 C 7,2 C 87 % 1017,4 hPa 0,0 l/m 0 min 0 min 0 W/m 29,0 km/h (5 Bft) 54,55 %
17.01.2020 04:20 8,3 C 7,8 C 7,2 C 87 % 1017,3 hPa 0,0 l/m 0 min 0 min 0 W/m 35,4 km/h (5 Bft) 97,87 %
17.01.2020 04:22 8,3 C 7,8 C 7,2 C 87 % 1017,4 hPa 0,0 l/m 0 min 0 min 0 W/m 35,4 km/h (5 Bft) 97,87 %
17.01.2020 04:24 8,4 C 7,8 C 7,2 C 87 % 1017,3 hPa 0,0 l/m 0 min 0 min 0 W/m 22,5 km/h (4 Bft) 97,83 %
17.01.2020 04:26 8,4 C 7,8 C 7,2 C 87 % 1017,3 hPa 0,0 l/m 0 min 0 min 0 W/m 38,6 km/h (5 Bft) 97,87 %
17.01.2020 04:28 8,4 C 7,8 C 7,2 C 87 % 1017,3 hPa 0,0 l/m 0 min 0 min 0 W/m 25,7 km/h (4 Bft) 97,87 %
17.01.2020 04:30 8,4 C 7,8 C 7,2 C 86 % 1017,2 hPa 0,0 l/m 0 min 0 min 0 W/m 32,2 km/h (5 Bft) 97,87 %
17.01.2020 04:32 8,4 C 7,8 C 7,2 C 86 % 1017,2 hPa 0,0 l/m 0 min 0 min 0 W/m 25,7 km/h (4 Bft) 97,87 %
17.01.2020 04:34 8,4 C 7,8 C 7,2 C 86 % 1017,2 hPa 0,0 l/m 0 min 0 min 0 W/m 25,7 km/h (4 Bft) 97,87 %
17.01.2020 04:36 8,4 C 7,8 C 7,2 C 86 % 1017,2 hPa 0,0 l/m 0 min 0 min 0 W/m 22,5 km/h (4 Bft) 97,83 %
17.01.2020 04:38 8,4 C 7,8 C 7,2 C 86 % 1017,2 hPa 0,0 l/m 0 min 0 min 0 W/m 16,1 km/h (3 Bft) 95,74 %
17.01.2020 04:40 8,4 C 7,8 C 7,2 C 86 % 1017,2 hPa 0,0 l/m 0 min 0 min 0 W/m 22,5 km/h (4 Bft) 97,87 %
17.01.2020 04:42 8,4 C 7,8 C 6,7 C 86 % 1017,1 hPa 0,0 l/m 0 min 0 min 0 W/m 16,1 km/h (3 Bft) 97,87 %
17.01.2020 04:44 8,4 C 7,8 C 6,7 C 86 % 1017,1 hPa 0,0 l/m 0 min 0 min 0 W/m 19,3 km/h (3 Bft) 97,87 %
17.01.2020 04:46 8,4 C 7,8 C 6,7 C 86 % 1017,1 hPa 0,0 l/m 0 min 0 min 0 W/m 22,5 km/h (4 Bft) 97,83 %
17.01.2020 04:48 8,4 C 7,8 C 6,7 C 86 % 1017,0 hPa 0,0 l/m 0 min 0 min 0 W/m 29,0 km/h (5 Bft) 97,87 %
17.01.2020 04:50 8,4 C 7,8 C 6,7 C 86 % 1017,0 hPa 0,0 l/m 0 min 0 min 0 W/m 29,0 km/h (5 Bft) 97,87 %
17.01.2020 04:52 8,3 C 7,2 C 6,7 C 86 % 1017,0 hPa 0,0 l/m 0 min 0 min 0 W/m 16,1 km/h (3 Bft) 97,87 %
17.01.2020 04:54 8,3 C 7,2 C 6,7 C 86 % 1016,9 hPa 0,0 l/m 0 min 0 min 0 W/m 25,7 km/h (4 Bft) 95,74 %
17.01.2020 04:56 8,3 C 7,2 C 6,7 C 86 % 1017,0 hPa 0,0 l/m 0 min 0 min 0 W/m 16,1 km/h (3 Bft) 98,00 %
17.01.2020 04:58 8,3 C 7,2 C 6,7 C 86 % 1016,9 hPa 0,0 l/m 0 min 0 min 0 W/m 29,0 km/h (5 Bft) 97,83 %
17.01.2020 05:00 8,3 C 7,2 C 6,7 C 86 % 1016,9 hPa 0,0 l/m 0 min 0 min 0 W/m 29,0 km/h (5 Bft) 97,87 %
17.01.2020 05:02 8,3 C 7,2 C 6,7 C 86 % 1016,9 hPa 0,0 l/m 0 min 0 min 0 W/m 19,3 km/h (3 Bft) 97,87 %
17.01.2020 05:04 8,2 C 7,2 C 6,7 C 87 % 1016,8 hPa 0,0 l/m 0 min 0 min 0 W/m 22,5 km/h (4 Bft) 100,00 %
17.01.2020 05:06 8,2 C 7,2 C 6,7 C 87 % 1016,8 hPa 0,0 l/m 0 min 0 min 0 W/m 29,0 km/h (5 Bft) 100,00 %
17.01.2020 05:08 8,2 C 7,2 C 6,7 C 87 % 1016,8 hPa 0,0 l/m 0 min 0 min 0 W/m 25,7 km/h (4 Bft) 100,00 %
17.01.2020 05:10 8,2 C 7,2 C 6,7 C 87 % 1016,8 hPa 0,0 l/m 0 min 0 min 0 W/m 22,5 km/h (4 Bft) 97,87 %
17.01.2020 05:12 8,1 C 7,2 C 6,7 C 87 % 1016,8 hPa 0,0 l/m 0 min 0 min 0 W/m 22,5 km/h (4 Bft) 95,74 %
17.01.2020 05:14 8,1 C 7,2 C 6,7 C 87 % 1016,8 hPa 0,0 l/m 0 min 0 min 0 W/m 19,3 km/h (3 Bft) 95,65 %
17.01.2020 05:16 8,1 C 7,2 C 6,7 C 87 % 1016,7 hPa 0,0 l/m 0 min 0 min 0 W/m 22,5 km/h (4 Bft) 97,87 %
17.01.2020 05:18 8,1 C 7,2 C 6,7 C 87 % 1016,7 hPa 0,0 l/m 0 min 0 min 0 W/m 25,7 km/h (4 Bft) 97,87 %
17.01.2020 05:20 8,1 C 7,2 C 6,7 C 87 % 1016,7 hPa 0,0 l/m 0 min 0 min 0 W/m 22,5 km/h (4 Bft) 97,87 %
17.01.2020 05:22 8,0 C 7,2 C 6,7 C 87 % 1016,7 hPa 0,0 l/m 0 min 0 min 0 W/m 25,7 km/h (4 Bft) 97,87 %
17.01.2020 05:24 8,0 C 7,2 C 6,7 C 87 % 1016,6 hPa 0,0 l/m 0 min 0 min 0 W/m 19,3 km/h (3 Bft) 97,83 %
17.01.2020 05:26 7,9 C 7,2 C 6,1 C 87 % 1016,6 hPa 0,0 l/m 0 min 0 min 0 W/m 29,0 km/h (5 Bft) 97,87 %
17.01.2020 05:28 7,9 C 7,2 C 6,1 C 87 % 1016,6 hPa 0,0 l/m 0 min 0 min 0 W/m 25,7 km/h (4 Bft) 97,87 %
17.01.2020 05:30 7,9 C 7,2 C 6,1 C 87 % 1016,6 hPa 0,0 l/m 0 min 0 min 0 W/m 22,5 km/h (4 Bft) 93,62 %
17.01.2020 05:32 7,9 C 7,2 C 6,1 C 87 % 1016,6 hPa 0,0 l/m 0 min 0 min 0 W/m 19,3 km/h (3 Bft) 100,00 %
17.01.2020 05:34 7,8 C 7,2 C 6,1 C 87 % 1016,6 hPa 0,0 l/m 0 min 0 min 0 W/m 22,5 km/h (4 Bft) 97,87 %
17.01.2020 05:36 7,8 C 7,2 C 6,1 C 87 % 1016,6 hPa 0,0 l/m 0 min 0 min 0 W/m 22,5 km/h (4 Bft) 95,65 %
17.01.2020 05:38 7,8 C 7,2 C 6,1 C 88 % 1016,6 hPa 0,0 l/m 0 min 0 min 0 W/m 25,7 km/h (4 Bft) 97,87 %
17.01.2020 05:40 7,8 C 7,2 C 6,1 C 88 % 1016,6 hPa 0,0 l/m 0 min 0 min 0 W/m 25,7 km/h (4 Bft) 97,87 %
17.01.2020 05:42 7,8 C 7,2 C 6,1 C 88 % 1016,7 hPa 0,0 l/m 0 min 0 min 0 W/m 19,3 km/h (3 Bft) 97,87 %
17.01.2020 05:44 7,8 C 7,2 C 6,1 C 88 % 1016,7 hPa 0,0 l/m 0 min 0 min 0 W/m 19,3 km/h (3 Bft) 95,74 %
17.01.2020 05:46 7,8 C 7,2 C 6,1 C 88 % 1016,7 hPa 0,0 l/m 0 min 0 min 0 W/m 16,1 km/h (3 Bft) 95,74 %
17.01.2020 05:48 7,8 C 7,2 C 6,1 C 88 % 1016,7 hPa 0,0 l/m 0 min 0 min 0 W/m 19,3 km/h (3 Bft) 93,48 %
17.01.2020 05:50 7,8 C 6,7 C 6,1 C 88 % 1016,7 hPa 0,0 l/m 0 min 0 min 0 W/m 19,3 km/h (3 Bft) 52,17 %
17.01.2020 05:52 7,7 C 7,2 C 6,1 C 88 % 1016,7 hPa 0,0 l/m 0 min 0 min 0 W/m 22,5 km/h (4 Bft) 95,74 %
17.01.2020 05:54 7,7 C 6,7 C 6,1 C 88 % 1016,7 hPa 0,0 l/m 0 min 0 min 0 W/m 29,0 km/h (5 Bft) 95,74 %
17.01.2020 05:56 7,7 C 6,7 C 6,1 C 88 % 1016,6 hPa 0,0 l/m 0 min 0 min 0 W/m 25,7 km/h (4 Bft) 95,74 %
17.01.2020 05:58 7,7 C 6,7 C 6,1 C 88 % 1016,6 hPa 0,0 l/m 0 min 0 min 0 W/m 19,3 km/h (3 Bft) 95,74 %
17.01.2020 06:00 7,7 C 6,7 C 6,1 C 88 % 1016,5 hPa 0,0 l/m 0 min 0 min 0 W/m 19,3 km/h (3 Bft) 97,83 %
17.01.2020 06:02 7,7 C 6,7 C 6,1 C 88 % 1016,5 hPa 0,0 l/m 0 min 0 min 0 W/m 29,0 km/h (5 Bft) 95,74 %
17.01.2020 06:04 7,7 C 6,7 C 6,1 C 88 % 1016,5 hPa 0,0 l/m 0 min 0 min 0 W/m 19,3 km/h (3 Bft) 95,74 %
17.01.2020 06:07 7,7 C 6,7 C 6,1 C 88 % 1016,6 hPa 0,0 l/m 0 min 0 min 0 W/m 29,0 km/h (5 Bft) 97,14 %
17.01.2020 06:08 7,6 C 6,7 C 6,1 C 88 % 1016,6 hPa 0,0 l/m 0 min 0 min 0 W/m 22,5 km/h (4 Bft) 100,00 %
17.01.2020 06:10 7,6 C 7,2 C 6,1 C 88 % 1016,5 hPa 0,0 l/m 0 min 0 min 0 W/m 25,7 km/h (4 Bft) 97,83 %
17.01.2020 06:12 7,6 C 7,2 C 6,7 C 88 % 1016,5 hPa 0,0 l/m 0 min 0 min 0 W/m 25,7 km/h (4 Bft) 93,62 %
17.01.2020 06:14 7,6 C 7,2 C 6,7 C 88 % 1016,5 hPa 0,0 l/m 0 min 0 min 0 W/m 25,7 km/h (4 Bft) 95,74 %
17.01.2020 06:16 7,6 C 7,2 C 6,7 C 88 % 1016,5 hPa 0,0 l/m 0 min 0 min 0 W/m 25,7 km/h (4 Bft) 95,74 %
17.01.2020 06:18 7,7 C 7,2 C 6,7 C 88 % 1016,4 hPa 0,0 l/m 0 min 0 min 0 W/m 25,7 km/h (4 Bft) 95,74 %
17.01.2020 06:20 7,7 C 7,2 C 6,7 C 88 % 1016,4 hPa 0,0 l/m 0 min 0 min 0 W/m 22,5 km/h (4 Bft) 97,87 %
17.01.2020 06:22 7,7 C 7,2 C 6,7 C 88 % 1016,4 hPa 0,0 l/m 0 min 0 min 0 W/m 32,2 km/h (5 Bft) 97,83 %
17.01.2020 06:24 7,7 C 7,2 C 6,7 C 88 % 1016,3 hPa 0,0 l/m 0 min 0 min 0 W/m 25,7 km/h (4 Bft) 97,87 %
17.01.2020 06:26 7,7 C 7,2 C 6,7 C 88 % 1016,3 hPa 0,0 l/m 0 min 0 min 0 W/m 19,3 km/h (3 Bft) 97,87 %
17.01.2020 06:28 7,7 C 7,2 C 6,7 C 88 % 1016,3 hPa 0,0 l/m 0 min 0 min 0 W/m 35,4 km/h (5 Bft) 97,87 %
17.01.2020 06:30 7,7 C 7,2 C 6,7 C 88 % 1016,3 hPa 0,0 l/m 0 min 0 min 0 W/m 35,4 km/h (5 Bft) 97,87 %
17.01.2020 06:32 7,7 C 7,2 C 6,7 C 88 % 1016,4 hPa 0,0 l/m 0 min 0 min 0 W/m 22,5 km/h (4 Bft) 97,87 %
17.01.2020 06:34 7,7 C 7,2 C 6,7 C 88 % 1016,4 hPa 0,0 l/m 0 min 0 min 0 W/m 35,4 km/h (5 Bft) 97,83 %
17.01.2020 06:36 7,7 C 7,2 C 6,7 C 88 % 1016,4 hPa 0,0 l/m 0 min 0 min 0 W/m 25,7 km/h (4 Bft) 93,62 %
17.01.2020 06:38 7,7 C 7,2 C 6,7 C 88 % 1016,3 hPa 0,0 l/m 0 min 0 min 0 W/m 38,6 km/h (5 Bft) 95,74 %
17.01.2020 06:40 7,7 C 7,2 C 6,7 C 88 % 1016,3 hPa 0,0 l/m 0 min 0 min 0 W/m 25,7 km/h (4 Bft) 95,74 %
17.01.2020 06:42 7,7 C 7,2 C 6,7 C 88 % 1016,3 hPa 0,0 l/m 0 min 0 min 0 W/m 32,2 km/h (5 Bft) 97,87 %
17.01.2020 06:44 7,7 C 7,2 C 6,7 C 88 % 1016,2 hPa 0,0 l/m 0 min 0 min 0 W/m 22,5 km/h (4 Bft) 95,74 %
17.01.2020 06:46 7,8 C 7,2 C 6,7 C 88 % 1016,3 hPa 0,0 l/m 0 min 0 min 0 W/m 19,3 km/h (3 Bft) 95,65 %
17.01.2020 06:48 7,7 C 7,2 C 6,7 C 88 % 1016,2 hPa 0,0 l/m 0 min 0 min 0 W/m 25,7 km/h (4 Bft) 100,00 %
17.01.2020 06:50 7,7 C 7,2 C 6,7 C 88 % 1016,2 hPa 0,0 l/m 0 min 0 min 0 W/m 22,5 km/h (4 Bft) 100,00 %
17.01.2020 06:52 7,7 C 7,2 C 6,7 C 88 % 1016,3 hPa 0,0 l/m 0 min 0 min 0 W/m 22,5 km/h (4 Bft) 100,00 %
17.01.2020 06:54 7,7 C 7,2 C 6,7 C 88 % 1016,2 hPa 0,0 l/m 0 min 0 min 0 W/m 29,0 km/h (5 Bft) 97,87 %
17.01.2020 06:56 7,7 C 7,2 C 6,7 C 88 % 1016,3 hPa 0,0 l/m 0 min 0 min 0 W/m 25,7 km/h (4 Bft) 100,00 %
17.01.2020 06:58 7,7 C 7,2 C 6,7 C 88 % 1016,2 hPa 0,0 l/m 0 min 0 min 0 W/m 22,5 km/h (4 Bft) 97,83 %
17.01.2020 07:00 7,7 C 6,7 C 6,1 C 88 % 1016,2 hPa 0,0 l/m 0 min 0 min 0 W/m 16,1 km/h (3 Bft) 100,00 %
17.01.2020 07:02 7,7 C 6,7 C 6,1 C 88 % 1016,2 hPa 0,0 l/m 0 min 0 min 0 W/m 19,3 km/h (3 Bft) 97,87 %
17.01.2020 07:04 7,7 C 6,7 C 6,1 C 88 % 1016,2 hPa 0,0 l/m 0 min 0 min 0 W/m 22,5 km/h (4 Bft) 97,87 %
17.01.2020 07:06 7,7 C 6,7 C 6,1 C 88 % 1016,2 hPa 0,0 l/m 0 min 0 min 0 W/m 19,3 km/h (3 Bft) 95,74 %
17.01.2020 07:08 7,7 C 6,7 C 6,1 C 88 % 1016,1 hPa 0,0 l/m 0 min 0 min 0 W/m 16,1 km/h (3 Bft) 95,74 %
17.01.2020 07:10 7,7 C 6,7 C 6,1 C 88 % 1016,1 hPa 0,0 l/m 0 min 0 min 0 W/m 12,9 km/h (3 Bft) 97,83 %
17.01.2020 07:12 7,7 C 6,7 C 6,1 C 88 % 1016,1 hPa 0,0 l/m 0 min 0 min 0 W/m 22,5 km/h (4 Bft) 95,74 %
17.01.2020 07:14 7,7 C 6,7 C 6,1 C 88 % 1016,1 hPa 0,0 l/m 0 min 0 min 0 W/m 22,5 km/h (4 Bft) 97,87 %
17.01.2020 07:16 7,6 C 6,7 C 6,1 C 88 % 1016,1 hPa 0,0 l/m 0 min 0 min 0 W/m 19,3 km/h (3 Bft) 97,87 %
17.01.2020 07:18 7,6 C 6,7 C 6,1 C 88 % 1016,1 hPa 0,0 l/m 0 min 0 min 0 W/m 22,5 km/h (4 Bft) 97,87 %
17.01.2020 07:20 7,6 C 6,7 C 6,1 C 88 % 1016,1 hPa 0,0 l/m 0 min 0 min 0 W/m 35,4 km/h (5 Bft) 97,83 %
17.01.2020 07:22 7,6 C 6,7 C 6,1 C 88 % 1016,1 hPa 0,0 l/m 0 min 0 min 0 W/m 29,0 km/h (5 Bft) 97,87 %
17.01.2020 07:24 7,6 C 6,7 C 6,1 C 88 % 1016,1 hPa 0,0 l/m 0 min 0 min 0 W/m 19,3 km/h (3 Bft) 97,87 %
17.01.2020 07:26 7,6 C 6,7 C 6,1 C 88 % 1016,1 hPa 0,0 l/m 0 min 0 min 0 W/m 22,5 km/h (4 Bft) 95,74 %
17.01.2020 07:28 7,6 C 6,7 C 6,1 C 88 % 1016,2 hPa 0,0 l/m 0 min 0 min 0 W/m 19,3 km/h (3 Bft) 97,87 %
17.01.2020 07:30 7,6 C 6,7 C 6,1 C 88 % 1016,2 hPa 0,0 l/m 0 min 0 min 0 W/m 22,5 km/h (4 Bft) 97,87 %
17.01.2020 07:32 7,6 C 6,7 C 6,1 C 88 % 1016,1 hPa 0,0 l/m 0 min 0 min 0 W/m 19,3 km/h (3 Bft) 97,83 %
17.01.2020 07:34 7,6 C 6,7 C 6,1 C 88 % 1016,1 hPa 0,0 l/m 0 min 0 min 0 W/m 16,1 km/h (3 Bft) 95,74 %
17.01.2020 07:36 7,5 C 6,7 C 6,1 C 88 % 1016,2 hPa 0,0 l/m 0 min 0 min 0 W/m 19,3 km/h (3 Bft) 97,87 %
17.01.2020 07:38 7,5 C 6,7 C 6,1 C 88 % 1016,2 hPa 0,0 l/m 0 min 0 min 0 W/m 19,3 km/h (3 Bft) 97,87 %
17.01.2020 07:40 7,5 C 6,7 C 6,1 C 88 % 1016,1 hPa 0,0 l/m 0 min 0 min 0 W/m 25,7 km/h (4 Bft) 97,87 %
17.01.2020 07:42 7,5 C 6,7 C 6,1 C 89 % 1016,1 hPa 0,0 l/m 0 min 0 min 0 W/m 25,7 km/h (4 Bft) 97,87 %
17.01.2020 07:44 7,5 C 6,7 C 6,1 C 89 % 1016,1 hPa 0,0 l/m 0 min 0 min 0 W/m 25,7 km/h (4 Bft) 97,83 %
17.01.2020 07:46 7,5 C 6,7 C 6,1 C 89 % 1016,0 hPa 0,0 l/m 0 min 0 min 0 W/m 22,5 km/h (4 Bft) 97,87 %
17.01.2020 07:48 7,5 C 6,7 C 6,1 C 89 % 1016,0 hPa 0,0 l/m 0 min 0 min 0 W/m 16,1 km/h (3 Bft) 97,87 %
17.01.2020 07:50 7,5 C 6,7 C 6,1 C 89 % 1016,0 hPa 0,0 l/m 0 min 0 min 0 W/m 25,7 km/h (4 Bft) 95,74 %
17.01.2020 07:52 7,5 C 6,7 C 6,1 C 89 % 1015,9 hPa 0,0 l/m 0 min 0 min 0 W/m 19,3 km/h (3 Bft) 97,87 %
17.01.2020 07:54 7,5 C 6,7 C 6,1 C 89 % 1015,9 hPa 0,0 l/m 0 min 0 min 0 W/m 25,7 km/h (4 Bft) 97,87 %
17.01.2020 07:56 7,5 C 6,7 C 6,1 C 89 % 1015,8 hPa 0,0 l/m 0 min 0 min 0 W/m 25,7 km/h (4 Bft) 97,83 %
17.01.2020 07:58 7,5 C 6,7 C 6,1 C 89 % 1015,7 hPa 0,0 l/m 0 min 0 min 0 W/m 19,3 km/h (3 Bft) 95,74 %
17.01.2020 08:00 7,5 C 6,7 C 6,1 C 89 % 1015,8 hPa 0,0 l/m 0 min 0 min 0 W/m 25,7 km/h (4 Bft) 97,87 %
17.01.2020 08:02 7,5 C 6,7 C 6,1 C 89 % 1015,8 hPa 0,0 l/m 0 min 0 min 0 W/m 35,4 km/h (5 Bft) 95,74 %
17.01.2020 08:04 7,5 C 6,7 C 6,1 C 89 % 1015,9 hPa 0,0 l/m 0 min 0 min 0 W/m 25,7 km/h (4 Bft) 97,87 %
17.01.2020 08:06 7,5 C 6,7 C 6,1 C 89 % 1015,9 hPa 0,0 l/m 0 min 0 min 0 W/m 25,7 km/h (4 Bft) 93,62 %
17.01.2020 08:08 7,5 C 6,7 C 6,1 C 89 % 1015,9 hPa 0,0 l/m 0 min 0 min 0 W/m 25,7 km/h (4 Bft) 97,83 %
17.01.2020 08:10 7,5 C 6,7 C 6,1 C 89 % 1016,0 hPa 0,0 l/m 0 min 0 min 0 W/m 19,3 km/h (3 Bft) 97,87 %
17.01.2020 08:12 7,5 C 6,7 C 6,1 C 89 % 1015,9 hPa 0,0 l/m 0 min 0 min 0 W/m 22,5 km/h (4 Bft) 97,87 %
17.01.2020 08:14 7,5 C 6,7 C 6,1 C 89 % 1015,9 hPa 0,0 l/m 0 min 0 min 0 W/m 25,7 km/h (4 Bft) 97,87 %
17.01.2020 08:16 7,5 C 6,7 C 6,1 C 89 % 1016,0 hPa 0,0 l/m 0 min 0 min 0 W/m 22,5 km/h (4 Bft) 97,87 %
17.01.2020 08:18 7,6 C 6,7 C 6,1 C 89 % 1016,1 hPa 0,0 l/m 0 min 0 min 0 W/m 22,5 km/h (4 Bft) 97,87 %
17.01.2020 08:20 7,5 C 6,7 C 6,1 C 89 % 1016,1 hPa 0,0 l/m 0 min 0 min 1 W/m 16,1 km/h (3 Bft) 97,83 %
17.01.2020 08:22 7,6 C 6,7 C 6,1 C 89 % 1016,2 hPa 0,0 l/m 0 min 0 min 5 W/m 22,5 km/h (4 Bft) 97,87 %
17.01.2020 08:24 7,6 C 6,7 C 6,1 C 89 % 1016,2 hPa 0,0 l/m 0 min 0 min 5 W/m 22,5 km/h (4 Bft) 95,74 %
17.01.2020 08:26 7,5 C 6,7 C 6,1 C 89 % 1016,2 hPa 0,0 l/m 0 min 0 min 5 W/m 16,1 km/h (3 Bft) 97,87 %
17.01.2020 08:28 7,6 C 6,7 C 6,1 C 89 % 1016,1 hPa 0,0 l/m 0 min 0 min 5 W/m 22,5 km/h (4 Bft) 97,87 %
17.01.2020 08:30 7,6 C 6,7 C 6,1 C 89 % 1016,1 hPa 0,0 l/m 0 min 0 min 5 W/m 29,0 km/h (5 Bft) 97,83 %
17.01.2020 08:32 7,6 C 7,2 C 6,7 C 89 % 1016,1 hPa 0,0 l/m 0 min 0 min 5 W/m 19,3 km/h (3 Bft) 97,87 %
17.01.2020 08:34 7,6 C 7,2 C 6,7 C 89 % 1016,1 hPa 0,0 l/m 0 min 0 min 5 W/m 29,0 km/h (5 Bft) 97,87 %
17.01.2020 08:36 7,6 C 7,2 C 6,7 C 89 % 1016,1 hPa 0,0 l/m 0 min 0 min 5 W/m 22,5 km/h (4 Bft) 100,00 %
17.01.2020 08:38 7,6 C 7,2 C 6,7 C 89 % 1016,1 hPa 0,0 l/m 0 min 0 min 5 W/m 22,5 km/h (4 Bft) 100,00 %
17.01.2020 08:40 7,6 C 7,2 C 6,7 C 89 % 1016,1 hPa 0,0 l/m 0 min 0 min 5 W/m 25,7 km/h (4 Bft) 100,00 %
17.01.2020 08:42 7,6 C 7,2 C 6,7 C 89 % 1016,1 hPa 0,0 l/m 0 min 0 min 5 W/m 25,7 km/h (4 Bft) 100,00 %
17.01.2020 08:44 7,6 C 7,2 C 6,7 C 89 % 1016,1 hPa 0,0 l/m 0 min 0 min 7 W/m 25,7 km/h (4 Bft) 97,87 %
17.01.2020 08:46 7,6 C 7,2 C 6,7 C 89 % 1016,1 hPa 0,0 l/m 0 min 0 min 7 W/m 22,5 km/h (4 Bft) 100,00 %
17.01.2020 08:48 7,6 C 7,2 C 6,7 C 89 % 1016,1 hPa 0,0 l/m 0 min 0 min 9 W/m 32,2 km/h (5 Bft) 100,00 %
17.01.2020 08:50 7,6 C 7,2 C 6,7 C 89 % 1015,9 hPa 0,0 l/m 0 min 0 min 10 W/m 29,0 km/h (5 Bft) 100,00 %
17.01.2020 08:52 7,7 C 7,2 C 6,7 C 89 % 1016,1 hPa 0,0 l/m 0 min 0 min 11 W/m 22,5 km/h (4 Bft) 100,00 %
17.01.2020 08:54 7,7 C 7,2 C 6,7 C 89 % 1016,1 hPa 0,0 l/m 0 min 0 min 12 W/m 25,7 km/h (4 Bft) 100,00 %
17.01.2020 08:56 7,7 C 7,2 C 6,7 C 89 % 1016,0 hPa 0,0 l/m 0 min 0 min 13 W/m 19,3 km/h (3 Bft) 100,00 %
17.01.2020 08:58 7,7 C 7,2 C 6,7 C 89 % 1015,9 hPa 0,0 l/m 0 min 0 min 14 W/m 19,3 km/h (3 Bft) 100,00 %
17.01.2020 09:00 7,7 C 7,2 C 6,7 C 88 % 1015,9 hPa 0,0 l/m 0 min 0 min 13 W/m 19,3 km/h (3 Bft) 100,00 %
17.01.2020 09:02 7,7 C 7,2 C 6,7 C 88 % 1016,0 hPa 0,0 l/m 0 min 0 min 12 W/m 25,7 km/h (4 Bft) 100,00 %
17.01.2020 09:04 7,7 C 7,2 C 6,7 C 88 % 1015,9 hPa 0,0 l/m 0 min 0 min 12 W/m 22,5 km/h (4 Bft) 100,00 %
17.01.2020 09:06 7,7 C 7,2 C 6,7 C 88 % 1015,9 hPa 0,0 l/m 0 min 0 min 13 W/m 29,0 km/h (5 Bft) 100,00 %
17.01.2020 09:08 7,7 C 7,2 C 6,7 C 88 % 1015,9 hPa 0,0 l/m 0 min 0 min 16 W/m 19,3 km/h (3 Bft) 100,00 %
17.01.2020 09:10 7,8 C 7,2 C 6,7 C 88 % 1015,9 hPa 0,0 l/m 0 min 0 min 19 W/m 29,0 km/h (5 Bft) 100,00 %
17.01.2020 09:12 7,8 C 7,2 C 6,7 C 88 % 1016,0 hPa 0,0 l/m 0 min 0 min 19 W/m 25,7 km/h (4 Bft) 97,87 %
17.01.2020 09:14 7,8 C 7,2 C 6,7 C 88 % 1016,0 hPa 0,0 l/m 0 min 0 min 19 W/m 19,3 km/h (3 Bft) 100,00 %
17.01.2020 09:16 7,8 C 7,2 C 6,7 C 88 % 1016,0 hPa 0,0 l/m 0 min 0 min 19 W/m 22,5 km/h (4 Bft) 100,00 %
17.01.2020 09:18 7,8 C 7,2 C 6,7 C 88 % 1016,0 hPa 0,0 l/m 0 min 0 min 18 W/m 22,5 km/h (4 Bft) 97,83 %
17.01.2020 09:20 7,8 C 7,2 C 6,7 C 88 % 1015,9 hPa 0,0 l/m 0 min 0 min 18 W/m 22,5 km/h (4 Bft) 97,87 %
17.01.2020 09:22 7,8 C 7,2 C 6,7 C 88 % 1015,9 hPa 0,0 l/m 0 min 0 min 18 W/m 22,5 km/h (4 Bft) 97,87 %
17.01.2020 09:24 7,8 C 7,2 C 6,7 C 88 % 1015,9 hPa 0,0 l/m 0 min 0 min 18 W/m 19,3 km/h (3 Bft) 97,87 %
17.01.2020 09:26 7,8 C 7,2 C 6,7 C 88 % 1015,9 hPa 0,0 l/m 0 min 0 min 18 W/m 16,1 km/h (3 Bft) 97,87 %
17.01.2020 09:28 7,8 C 7,2 C 6,7 C 88 % 1016,0 hPa 0,0 l/m 0 min 0 min 15 W/m 19,3 km/h (3 Bft) 97,83 %
17.01.2020 09:30 7,8 C 7,2 C 6,7 C 88 % 1016,0 hPa 0,0 l/m 0 min 0 min 15 W/m 19,3 km/h (3 Bft) 97,87 %
17.01.2020 09:32 7,8 C 7,2 C 6,7 C 88 % 1016,0 hPa 0,0 l/m 0 min 0 min 18 W/m 19,3 km/h (3 Bft) 97,87 %
17.01.2020 09:34 7,8 C 7,2 C 6,7 C 88 % 1016,1 hPa 0,0 l/m 0 min 0 min 16 W/m 16,1 km/h (3 Bft) 97,87 %
17.01.2020 09:36 7,8 C 7,2 C 6,7 C 88 % 1016,0 hPa 0,0 l/m 0 min 0 min 15 W/m 19,3 km/h (3 Bft) 97,87 %
17.01.2020 09:38 7,8 C 7,2 C 6,7 C 88 % 1016,1 hPa 0,0 l/m 0 min 0 min 18 W/m 22,5 km/h (4 Bft) 97,87 %
17.01.2020 09:40 7,8 C 7,2 C 6,7 C 88 % 1016,1 hPa 0,0 l/m 0 min 0 min 18 W/m 19,3 km/h (3 Bft) 95,65 %
17.01.2020 09:42 7,8 C 7,2 C 6,7 C 88 % 1016,1 hPa 0,0 l/m 0 min 0 min 16 W/m 19,3 km/h (3 Bft) 97,87 %
17.01.2020 09:44 7,9 C 7,2 C 6,7 C 88 % 1016,1 hPa 0,0 l/m 0 min 0 min 18 W/m 12,9 km/h (3 Bft) 95,74 %
17.01.2020 09:46 7,9 C 7,2 C 6,7 C 88 % 1016,1 hPa 0,0 l/m 0 min 0 min 19 W/m 12,9 km/h (3 Bft) 97,87 %
17.01.2020 09:48 7,9 C 7,2 C 6,7 C 88 % 1016,1 hPa 0,0 l/m 0 min 0 min 25 W/m 19,3 km/h (3 Bft) 95,74 %
17.01.2020 09:50 7,9 C 7,2 C 6,7 C 88 % 1016,1 hPa 0,0 l/m 0 min 0 min 29 W/m 19,3 km/h (3 Bft) 97,87 %
17.01.2020 09:52 7,9 C 7,2 C 6,7 C 88 % 1016,1 hPa 0,0 l/m 0 min 0 min 30 W/m 22,5 km/h (4 Bft) 97,83 %
17.01.2020 09:54 7,9 C 7,2 C 6,7 C 88 % 1016,1 hPa 0,0 l/m 0 min 0 min 33 W/m 16,1 km/h (3 Bft) 95,74 %
17.01.2020 09:56 7,9 C 7,2 C 6,7 C 89 % 1016,1 hPa 0,0 l/m 0 min 0 min 34 W/m 22,5 km/h (4 Bft) 95,74 %
17.01.2020 09:58 7,9 C 7,8 C 7,2 C 89 % 1015,9 hPa 0,0 l/m 0 min 0 min 43 W/m 3,2 km/h (1 Bft) 95,74 %
17.01.2020 10:00 7,9 C 7,8 C 7,2 C 89 % 1016,0 hPa 0,0 l/m 0 min 0 min 50 W/m 19,3 km/h (3 Bft) 95,74 %
17.01.2020 10:02 7,9 C 7,8 C 7,2 C 89 % 1015,9 hPa 0,0 l/m 0 min 0 min 52 W/m 19,3 km/h (3 Bft) 93,62 %
17.01.2020 10:04 7,9 C 7,8 C 7,2 C 89 % 1016,0 hPa 0,0 l/m 0 min 0 min 52 W/m 16,1 km/h (3 Bft) 95,65 %
17.01.2020 10:06 7,9 C 7,8 C 7,2 C 89 % 1015,9 hPa 0,0 l/m 0 min 0 min 53 W/m 19,3 km/h (3 Bft) 95,74 %
17.01.2020 10:08 8,0 C 7,8 C 7,2 C 89 % 1015,9 hPa 0,0 l/m 0 min 0 min 56 W/m 16,1 km/h (3 Bft) 93,62 %
17.01.2020 10:10 8,0 C 7,8 C 7,2 C 89 % 1015,9 hPa 0,0 l/m 0 min 0 min 57 W/m 22,5 km/h (4 Bft) 95,74 %
17.01.2020 10:12 8,1 C 7,8 C 7,2 C 89 % 1015,9 hPa 0,0 l/m 0 min 0 min 56 W/m 16,1 km/h (3 Bft) 91,49 %
17.01.2020 10:14 8,1 C 7,8 C 7,2 C 89 % 1015,9 hPa 0,0 l/m 0 min 0 min 62 W/m 19,3 km/h (3 Bft) 95,74 %
17.01.2020 10:16 8,1 C 7,8 C 7,2 C 89 % 1015,9 hPa 0,0 l/m 0 min 0 min 59 W/m 19,3 km/h (3 Bft) 97,83 %
17.01.2020 10:18 8,1 C 7,8 C 7,2 C 89 % 1015,9 hPa 0,0 l/m 0 min 0 min 57 W/m 22,5 km/h (4 Bft) 97,87 %
17.01.2020 10:20 8,1 C 7,8 C 7,2 C 89 % 1015,9 hPa 0,0 l/m 0 min 0 min 57 W/m 16,1 km/h (3 Bft) 55,32 %
17.01.2020 10:22 8,1 C 7,8 C 7,2 C 89 % 1015,9 hPa 0,0 l/m 0 min 0 min 61 W/m 16,1 km/h (3 Bft) 95,74 %
17.01.2020 10:24 8,2 C 7,8 C 7,2 C 89 % 1015,9 hPa 0,0 l/m 0 min 0 min 60 W/m 19,3 km/h (3 Bft) 97,87 %
17.01.2020 10:26 8,2 C 7,8 C 7,2 C 89 % 1015,9 hPa 0,0 l/m 0 min 0 min 59 W/m 22,5 km/h (4 Bft) 97,83 %
17.01.2020 10:28 8,2 C 7,8 C 7,2 C 89 % 1015,8 hPa 0,0 l/m 0 min 0 min 62 W/m 22,5 km/h (4 Bft) 95,74 %
17.01.2020 10:30 8,2 C 7,8 C 7,2 C 88 % 1015,8 hPa 0,0 l/m 0 min 0 min 66 W/m 22,5 km/h (4 Bft) 95,74 %
17.01.2020 10:32 8,2 C 7,8 C 7,2 C 89 % 1015,8 hPa 0,0 l/m 0 min 0 min 68 W/m 22,5 km/h (4 Bft) 93,62 %
17.01.2020 10:34 8,2 C 7,8 C 7,8 C 89 % 1015,8 hPa 0,0 l/m 0 min 0 min 70 W/m 19,3 km/h (3 Bft) 95,74 %
17.01.2020 10:36 8,2 C 8,3 C 7,8 C 89 % 1015,8 hPa 0,0 l/m 0 min 0 min 73 W/m 19,3 km/h (3 Bft) 95,74 %
17.01.2020 10:38 8,3 C 8,3 C 7,8 C 89 % 1015,9 hPa 0,0 l/m 0 min 0 min 70 W/m 29,0 km/h (5 Bft) 95,65 %
17.01.2020 10:40 8,3 C 8,3 C 7,8 C 88 % 1015,9 hPa 0,0 l/m 0 min 0 min 71 W/m 22,5 km/h (4 Bft) 95,74 %
17.01.2020 10:42 8,3 C 8,3 C 7,8 C 88 % 1015,8 hPa 0,0 l/m 0 min 0 min 74 W/m 19,3 km/h (3 Bft) 95,74 %
17.01.2020 10:44 8,3 C 8,3 C 7,8 C 88 % 1015,8 hPa 0,0 l/m 0 min 0 min 77 W/m 19,3 km/h (3 Bft) 95,74 %
17.01.2020 10:46 8,3 C 8,3 C 7,8 C 88 % 1015,8 hPa 0,0 l/m 0 min 0 min 89 W/m 22,5 km/h (4 Bft) 97,87 %
17.01.2020 10:48 8,4 C 8,3 C 7,8 C 88 % 1015,8 hPa 0,0 l/m 0 min 0 min 93 W/m 29,0 km/h (5 Bft) 97,87 %
17.01.2020 10:50 8,4 C 8,3 C 7,8 C 88 % 1015,8 hPa 0,0 l/m 0 min 0 min 81 W/m 12,9 km/h (3 Bft) 93,48 %
17.01.2020 10:52 8,4 C 8,3 C 7,8 C 88 % 1015,8 hPa 0,0 l/m 0 min 0 min 76 W/m 19,3 km/h (3 Bft) 97,87 %
17.01.2020 10:54 8,4 C 8,3 C 7,8 C 88 % 1015,8 hPa 0,0 l/m 0 min 0 min 79 W/m 16,1 km/h (3 Bft) 97,87 %
17.01.2020 10:56 8,5 C 8,3 C 7,8 C 88 % 1015,8 hPa 0,0 l/m 0 min 0 min 83 W/m 16,1 km/h (3 Bft) 97,87 %
17.01.2020 10:58 8,5 C 8,3 C 7,8 C 88 % 1015,8 hPa 0,0 l/m 0 min 0 min 75 W/m 25,7 km/h (4 Bft) 97,87 %
17.01.2020 11:00 8,6 C 8,3 C 7,8 C 88 % 1015,8 hPa 0,0 l/m 0 min 0 min 64 W/m 3,2 km/h (1 Bft) 95,74 %
17.01.2020 11:02 8,6 C 8,3 C 7,8 C 88 % 1015,8 hPa 0,0 l/m 0 min 0 min 67 W/m 25,7 km/h (4 Bft) 97,83 %
17.01.2020 11:04 8,6 C 8,3 C 7,8 C 88 % 1015,7 hPa 0,0 l/m 0 min 0 min 69 W/m 16,1 km/h (3 Bft) 97,87 %
17.01.2020 11:06 8,6 C 8,3 C 7,8 C 88 % 1015,7 hPa 0,0 l/m 0 min 0 min 74 W/m 16,1 km/h (3 Bft) 97,87 %
17.01.2020 11:08 8,6 C 8,3 C 7,8 C 88 % 1015,7 hPa 0,0 l/m 0 min 0 min 87 W/m 25,7 km/h (4 Bft) 97,87 %
17.01.2020 11:10 8,7 C 8,9 C 8,3 C 88 % 1015,7 hPa 0,0 l/m 0 min 0 min 99 W/m 22,5 km/h (4 Bft) 97,87 %
17.01.2020 11:12 8,7 C 8,9 C 8,3 C 88 % 1015,7 hPa 0,0 l/m 0 min 0 min 105 W/m 22,5 km/h (4 Bft) 97,87 %
17.01.2020 11:14 8,7 C 8,9 C 8,3 C 88 % 1015,7 hPa 0,0 l/m 0 min 0 min 106 W/m 16,1 km/h (3 Bft) 100,00 %
17.01.2020 11:16 8,7 C 8,9 C 8,3 C 88 % 1015,7 hPa 0,0 l/m 0 min 0 min 112 W/m 16,1 km/h (3 Bft) 100,00 %
17.01.2020 11:18 8,8 C 8,9 C 8,3 C 88 % 1015,6 hPa 0,0 l/m 0 min 0 min 111 W/m 0,0 km/h (0 Bft) 97,87 %
17.01.2020 11:20 8,8 C 8,9 C 8,3 C 88 % 1015,5 hPa 0,0 l/m 0 min 0 min 102 W/m 0,0 km/h (0 Bft) 100,00 %
17.01.2020 11:22 8,8 C 8,9 C 8,3 C 88 % 1015,6 hPa 0,0 l/m 0 min 0 min 95 W/m 12,9 km/h (3 Bft) 100,00 %
17.01.2020 11:24 8,8 C 8,9 C 8,3 C 88 % 1015,5 hPa 0,0 l/m 0 min 0 min 92 W/m 16,1 km/h (3 Bft) 100,00 %
17.01.2020 11:26 8,9 C 8,9 C 8,3 C 87 % 1015,5 hPa 0,0 l/m 0 min 0 min 96 W/m 3,2 km/h (1 Bft) 100,00 %
17.01.2020 11:28 8,9 C 8,9 C 8,3 C 87 % 1015,6 hPa 0,0 l/m 0 min 0 min 92 W/m 0,0 km/h (0 Bft) 100,00 %
17.01.2020 11:30 8,9 C 8,9 C 8,3 C 87 % 1015,6 hPa 0,0 l/m 0 min 0 min 81 W/m 0,0 km/h (0 Bft) 100,00 %
17.01.2020 11:32 8,9 C 8,9 C 8,3 C 87 % 1015,5 hPa 0,0 l/m 0 min 0 min 70 W/m 3,2 km/h (1 Bft) 100,00 %
17.01.2020 11:34 8,9 C 8,9 C 8,3 C 87 % 1015,5 hPa 0,0 l/m 0 min 0 min 73 W/m 22,5 km/h (4 Bft) 100,00 %
17.01.2020 11:36 9,0 C 8,9 C 8,3 C 87 % 1015,5 hPa 0,0 l/m 0 min 0 min 77 W/m 0,0 km/h (0 Bft) 100,00 %
17.01.2020 11:38 9,0 C 8,9 C 8,3 C 87 % 1015,5 hPa 0,0 l/m 0 min 0 min 77 W/m 0,0 km/h (0 Bft) 100,00 %
17.01.2020 11:40 9,0 C 8,9 C 8,3 C 87 % 1015,5 hPa 0,0 l/m 0 min 0 min 72 W/m 0,0 km/h (0 Bft) 97,87 %
17.01.2020 11:42 9,1 C 8,9 C 8,3 C 87 % 1015,4 hPa 0,0 l/m 0 min 0 min 66 W/m 12,9 km/h (3 Bft) 100,00 %
17.01.2020 11:44 9,1 C 8,9 C 8,3 C 87 % 1015,4 hPa 0,0 l/m 0 min 0 min 60 W/m 0,0 km/h (0 Bft) 100,00 %
17.01.2020 11:46 9,1 C 8,9 C 8,3 C 87 % 1015,4 hPa 0,0 l/m 0 min 0 min 55 W/m 0,0 km/h (0 Bft) 100,00 %
17.01.2020 11:48 9,1 C 8,9 C 8,3 C 87 % 1015,4 hPa 0,0 l/m 0 min 0 min 52 W/m 3,2 km/h (1 Bft) 100,00 %
17.01.2020 11:50 9,1 C 8,9 C 8,3 C 87 % 1015,3 hPa 0,0 l/m 0 min 0 min 53 W/m 0,0 km/h (0 Bft) 100,00 %
17.01.2020 11:52 9,1 C 8,9 C 8,3 C 87 % 1015,3 hPa 0,0 l/m 0 min 0 min 52 W/m 0,0 km/h (0 Bft) 100,00 %
17.01.2020 11:54 9,1 C 8,3 C 8,3 C 87 % 1015,3 hPa 0,0 l/m 0 min 0 min 43 W/m 0,0 km/h (0 Bft) 100,00 %
17.01.2020 11:56 9,1 C 8,3 C 8,3 C 87 % 1015,3 hPa 0,0 l/m 0 min 0 min 35 W/m 0,0 km/h (0 Bft) 100,00 %
17.01.2020 11:58 9,1 C 8,3 C 7,8 C 87 % 1015,3 hPa 0,0 l/m 0 min 0 min 33 W/m 0,0 km/h (0 Bft) 100,00 %
17.01.2020 12:00 9,1 C 8,3 C 7,8 C 87 % 1015,3 hPa 0,0 l/m 0 min 0 min 27 W/m 0,0 km/h (0 Bft) 97,83 %
17.01.2020 12:02 9,1 C 8,3 C 7,8 C 87 % 1015,3 hPa 0,0 l/m 0 min 0 min 24 W/m 0,0 km/h (0 Bft) 100,00 %
17.01.2020 12:04 9,1 C 8,3 C 7,8 C 87 % 1015,3 hPa 0,0 l/m 0 min 0 min 22 W/m 0,0 km/h (0 Bft) 100,00 %
17.01.2020 12:06 9,1 C 8,3 C 7,8 C 87 % 1015,3 hPa 0,0 l/m 0 min 0 min 19 W/m 0,0 km/h (0 Bft) 100,00 %
17.01.2020 12:08 9,1 C 8,3 C 7,8 C 87 % 1015,2 hPa 0,0 l/m 0 min 0 min 19 W/m 0,0 km/h (0 Bft) 100,00 %
17.01.2020 12:10 9,1 C 8,3 C 7,8 C 87 % 1015,2 hPa 0,0 l/m 0 min 0 min 19 W/m 0,0 km/h (0 Bft) 97,87 %
17.01.2020 12:12 9,1 C 8,3 C 7,8 C 87 % 1015,2 hPa 0,0 l/m 0 min 0 min 19 W/m 6,4 km/h (2 Bft) 100,00 %
17.01.2020 12:14 9,1 C 8,3 C 7,8 C 87 % 1015,2 hPa 0,0 l/m 0 min 0 min 22 W/m 0,0 km/h (0 Bft) 100,00 %
17.01.2020 12:16 9,1 C 8,3 C 7,8 C 87 % 1015,1 hPa 0,0 l/m 0 min 0 min 23 W/m 0,0 km/h (0 Bft) 100,00 %
17.01.2020 12:18 9,1 C 8,9 C 8,3 C 87 % 1015,1 hPa 0,0 l/m 0 min 0 min 23 W/m 0,0 km/h (0 Bft) 100,00 %
17.01.2020 12:20 9,1 C 8,9 C 8,3 C 87 % 1015,1 hPa 0,0 l/m 0 min 0 min 25 W/m 0,0 km/h (0 Bft) 100,00 %
17.01.2020 12:22 9,1 C 8,9 C 8,3 C 87 % 1015,1 hPa 0,0 l/m 0 min 0 min 28 W/m 0,0 km/h (0 Bft) 100,00 %
17.01.2020 12:24 9,1 C 8,9 C 8,3 C 87 % 1015,1 hPa 0,0 l/m 0 min 0 min 30 W/m 0,0 km/h (0 Bft) 100,00 %
17.01.2020 12:26 9,1 C 8,9 C 8,3 C 87 % 1015,1 hPa 0,0 l/m 0 min 0 min 29 W/m 0,0 km/h (0 Bft) 97,87 %
17.01.2020 12:28 9,2 C 8,9 C 8,3 C 87 % 1015,1 hPa 0,0 l/m 0 min 0 min 24 W/m 3,2 km/h (1 Bft) 97,87 %
17.01.2020 12:30 9,2 C 8,9 C 8,3 C 87 % 1015,1 hPa 0,0 l/m 0 min 0 min 24 W/m 0,0 km/h (0 Bft) 100,00 %
17.01.2020 12:32 9,2 C 8,9 C 8,3 C 87 % 1015,1 hPa 0,0 l/m 0 min 0 min 23 W/m 3,2 km/h (1 Bft) 93,62 %
17.01.2020 12:34 9,2 C 8,9 C 8,3 C 87 % 1015,1 hPa 0,0 l/m 0 min 0 min 24 W/m 0,0 km/h (0 Bft) 95,74 %
17.01.2020 12:36 9,2 C 8,9 C 8,3 C 87 % 1015,1 hPa 0,0 l/m 0 min 0 min 23 W/m 3,2 km/h (1 Bft) 93,48 %
17.01.2020 12:38 9,2 C 8,9 C 8,3 C 87 % 1015,1 hPa 0,0 l/m 0 min 0 min 23 W/m 0,0 km/h (0 Bft) 100,00 %
17.01.2020 12:40 9,2 C 8,9 C 8,3 C 87 % 1015,1 hPa 0,0 l/m 0 min 0 min 20 W/m 0,0 km/h (0 Bft) 97,87 %
17.01.2020 12:42 9,2 C 8,9 C 8,3 C 88 % 1015,0 hPa 0,0 l/m 0 min 0 min 18 W/m 0,0 km/h (0 Bft) 97,87 %
17.01.2020 12:44 9,2 C 8,9 C 8,3 C 87 % 1015,0 hPa 0,0 l/m 0 min 0 min 18 W/m 0,0 km/h (0 Bft) 95,74 %
17.01.2020 12:46 9,2 C 8,9 C 8,3 C 87 % 1015,0 hPa 0,0 l/m 0 min 0 min 18 W/m 0,0 km/h (0 Bft) 95,74 %
17.01.2020 12:48 9,2 C 8,9 C 8,3 C 87 % 1015,0 hPa 0,0 l/m 0 min 0 min 18 W/m 0,0 km/h (0 Bft) 95,65 %
17.01.2020 12:50 9,2 C 8,3 C 8,3 C 87 % 1015,0 hPa 0,0 l/m 0 min 0 min 18 W/m 0,0 km/h (0 Bft) 93,62 %
17.01.2020 12:52 9,2 C 8,3 C 8,3 C 88 % 1015,1 hPa 0,0 l/m 0 min 0 min 17 W/m 0,0 km/h (0 Bft) 95,74 %
17.01.2020 12:54 9,3 C 8,3 C 7,8 C 88 % 1015,1 hPa 0,0 l/m 0 min 2 min 16 W/m 0,0 km/h (0 Bft) 95,74 %
17.01.2020 12:56 9,3 C 8,3 C 7,8 C 88 % 1015,1 hPa 0,0 l/m 0 min 2 min 17 W/m 0,0 km/h (0 Bft) 93,62 %
17.01.2020 12:58 9,3 C 7,8 C 7,8 C 88 % 1015,1 hPa 0,0 l/m 0 min 2 min 19 W/m 0,0 km/h (0 Bft) 93,48 %
17.01.2020 13:00 9,3 C 7,8 C 7,2 C 88 % 1015,1 hPa 0,0 l/m 0 min 2 min 19 W/m 0,0 km/h (0 Bft) 95,74 %
17.01.2020 13:02 9,3 C 7,8 C 7,2 C 88 % 1015,0 hPa 0,0 l/m 0 min 2 min 19 W/m 6,4 km/h (2 Bft) 91,49 %
17.01.2020 13:04 9,3 C 7,8 C 7,2 C 88 % 1015,1 hPa 0,0 l/m 0 min 2 min 19 W/m 0,0 km/h (0 Bft) 93,62 %
17.01.2020 13:06 9,3 C 7,8 C 7,2 C 88 % 1015,0 hPa 0,0 l/m 0 min 2 min 19 W/m 0,0 km/h (0 Bft) 91,49 %
17.01.2020 13:08 9,3 C 7,8 C 7,2 C 89 % 1015,0 hPa 0,0 l/m 0 min 2 min 21 W/m 0,0 km/h (0 Bft) 93,62 %
17.01.2020 13:10 9,4 C 7,8 C 7,2 C 89 % 1015,1 hPa 0,0 l/m 0 min 2 min 23 W/m 0,0 km/h (0 Bft) 93,48 %
17.01.2020 13:12 9,4 C 7,8 C 7,2 C 89 % 1015,0 hPa 0,0 l/m 0 min 2 min 22 W/m 3,2 km/h (1 Bft) 89,36 %
17.01.2020 13:14 9,4 C 7,8 C 7,2 C 89 % 1015,0 hPa 0,0 l/m 0 min 2 min 22 W/m 0,0 km/h (0 Bft) 91,49 %
17.01.2020 13:16 9,4 C 7,8 C 7,2 C 89 % 1015,0 hPa 0,0 l/m 0 min 2 min 25 W/m 3,2 km/h (1 Bft) 91,49 %
17.01.2020 13:18 9,4 C 7,8 C 7,2 C 89 % 1015,0 hPa 0,0 l/m 0 min 2 min 25 W/m 0,0 km/h (0 Bft) 91,49 %
17.01.2020 13:20 9,5 C 7,8 C 7,2 C 90 % 1015,0 hPa 0,0 l/m 0 min 2 min 24 W/m 3,2 km/h (1 Bft) 91,49 %
17.01.2020 13:22 9,5 C 7,8 C 7,2 C 90 % 1015,1 hPa 0,0 l/m 0 min 0 min 25 W/m 0,0 km/h (0 Bft) 91,30 %
17.01.2020 13:24 9,5 C 7,8 C 7,2 C 90 % 1015,1 hPa 0,0 l/m 0 min 0 min 25 W/m 0,0 km/h (0 Bft) 93,62 %
17.01.2020 13:26 9,5 C 7,8 C 7,2 C 90 % 1015,0 hPa 0,0 l/m 0 min 2 min 23 W/m 29,0 km/h (5 Bft) 93,62 %
17.01.2020 13:28 9,5 C 7,8 C 7,2 C 90 % 1015,1 hPa 0,0 l/m 0 min 2 min 22 W/m 22,5 km/h (4 Bft) 95,74 %
17.01.2020 13:30 9,5 C 7,8 C 7,2 C 90 % 1014,9 hPa 0,0 l/m 0 min 2 min 23 W/m 22,5 km/h (4 Bft) 97,87 %
17.01.2020 13:32 9,5 C 7,8 C 7,2 C 90 % 1015,0 hPa 0,0 l/m 0 min 2 min 25 W/m 19,3 km/h (3 Bft) 97,83 %
17.01.2020 13:34 9,5 C 7,8 C 7,2 C 90 % 1014,9 hPa 0,0 l/m 0 min 0 min 28 W/m 0,0 km/h (0 Bft) 97,87 %
17.01.2020 13:36 9,5 C 8,3 C 7,2 C 90 % 1015,0 hPa 0,0 l/m 0 min 0 min 27 W/m 0,0 km/h (0 Bft) 95,74 %
17.01.2020 13:38 9,5 C 8,3 C 7,8 C 90 % 1014,9 hPa 0,0 l/m 0 min 0 min 25 W/m 3,2 km/h (1 Bft) 95,74 %
17.01.2020 13:40 9,5 C 8,3 C 7,8 C 90 % 1014,9 hPa 0,0 l/m 0 min 0 min 23 W/m 0,0 km/h (0 Bft) 97,87 %
17.01.2020 13:42 9,5 C 8,3 C 7,8 C 91 % 1014,9 hPa 0,0 l/m 0 min 2 min 21 W/m 0,0 km/h (0 Bft) 97,87 %
17.01.2020 13:44 9,5 C 8,3 C 7,8 C 91 % 1014,9 hPa 0,0 l/m 0 min 2 min 21 W/m 0,0 km/h (0 Bft) 95,74 %
17.01.2020 13:46 9,5 C 8,3 C 7,8 C 91 % 1014,9 hPa 0,0 l/m 0 min 2 min 23 W/m 0,0 km/h (0 Bft) 95,65 %
17.01.2020 13:48 9,5 C 8,3 C 7,8 C 91 % 1014,9 hPa 0,0 l/m 0 min 0 min 26 W/m 0,0 km/h (0 Bft) 100,00 %
17.01.2020 13:50 9,5 C 8,3 C 7,8 C 91 % 1014,9 hPa 0,0 l/m 0 min 0 min 26 W/m 0,0 km/h (0 Bft) 97,87 %
17.01.2020 13:52 9,5 C 8,3 C 7,8 C 91 % 1014,9 hPa 0,0 l/m 0 min 0 min 32 W/m 6,4 km/h (2 Bft) 97,87 %
17.01.2020 13:54 9,5 C 8,3 C 7,8 C 91 % 1014,8 hPa 0,0 l/m 0 min 0 min 34 W/m 12,9 km/h (3 Bft) 97,87 %
17.01.2020 13:56 9,5 C 7,8 C 7,8 C 91 % 1014,9 hPa 0,0 l/m 0 min 2 min 35 W/m 12,9 km/h (3 Bft) 100,00 %
17.01.2020 13:58 9,5 C 8,3 C 7,8 C 91 % 1014,8 hPa 0,0 l/m 0 min 2 min 33 W/m 3,2 km/h (1 Bft) 53,33 %
17.01.2020 14:00 9,5 C 7,8 C 7,8 C 91 % 1014,9 hPa 0,0 l/m 0 min 2 min 29 W/m 6,4 km/h (2 Bft) 100,00 %
17.01.2020 14:02 9,5 C 7,8 C 7,8 C 91 % 1014,8 hPa 0,0 l/m 0 min 2 min 26 W/m 3,2 km/h (1 Bft) 100,00 %
17.01.2020 14:04 9,5 C 7,8 C 7,8 C 91 % 1014,9 hPa 0,0 l/m 0 min 2 min 24 W/m 0,0 km/h (0 Bft) 100,00 %
17.01.2020 14:06 9,5 C 7,8 C 7,8 C 91 % 1014,9 hPa 0,0 l/m 0 min 2 min 23 W/m 6,4 km/h (2 Bft) 100,00 %
17.01.2020 14:08 9,5 C 7,8 C 7,2 C 91 % 1014,9 hPa 0,0 l/m 0 min 2 min 20 W/m 6,4 km/h (2 Bft) 100,00 %
17.01.2020 14:10 9,5 C 7,8 C 7,2 C 91 % 1014,8 hPa 0,0 l/m 0 min 2 min 21 W/m 3,2 km/h (1 Bft) 100,00 %
17.01.2020 14:12 9,4 C 7,8 C 7,2 C 91 % 1014,8 hPa 0,2 l/m 0 min 2 min 23 W/m 0,0 km/h (0 Bft) 100,00 %
17.01.2020 14:14 9,4 C 7,8 C 7,2 C 92 % 1014,8 hPa 0,0 l/m 0 min 2 min 22 W/m 0,0 km/h (0 Bft) 100,00 %
17.01.2020 14:16 9,4 C 7,8 C 7,2 C 92 % 1014,8 hPa 0,0 l/m 0 min 2 min 22 W/m 0,0 km/h (0 Bft) 100,00 %
17.01.2020 14:18 9,4 C 7,8 C 7,2 C 92 % 1014,8 hPa 0,0 l/m 0 min 2 min 22 W/m 0,0 km/h (0 Bft) 100,00 %
17.01.2020 14:20 9,4 C 7,8 C 7,2 C 92 % 1014,8 hPa 0,0 l/m 0 min 2 min 25 W/m 19,3 km/h (3 Bft) 100,00 %
17.01.2020 14:22 9,4 C 7,8 C 7,2 C 92 % 1014,7 hPa 0,0 l/m 0 min 2 min 25 W/m 0,0 km/h (0 Bft) 100,00 %
17.01.2020 14:24 9,4 C 7,8 C 7,2 C 92 % 1014,8 hPa 0,0 l/m 0 min 2 min 27 W/m 25,7 km/h (4 Bft) 100,00 %
17.01.2020 14:26 9,4 C 7,8 C 7,2 C 92 % 1014,8 hPa 0,0 l/m 0 min 2 min 31 W/m 22,5 km/h (4 Bft) 100,00 %
17.01.2020 14:28 9,4 C 7,8 C 7,2 C 92 % 1014,8 hPa 0,0 l/m 0 min 0 min 29 W/m 3,2 km/h (1 Bft) 100,00 %
17.01.2020 14:30 9,3 C 7,8 C 7,2 C 92 % 1014,7 hPa 0,0 l/m 0 min 0 min 33 W/m 3,2 km/h (1 Bft) 97,87 %
17.01.2020 14:32 9,3 C 7,8 C 7,2 C 93 % 1014,7 hPa 0,0 l/m 0 min 0 min 34 W/m 0,0 km/h (0 Bft) 97,83 %
17.01.2020 14:34 9,3 C 7,8 C 7,2 C 93 % 1014,7 hPa 0,0 l/m 0 min 0 min 35 W/m 0,0 km/h (0 Bft) 100,00 %
17.01.2020 14:36 9,3 C 7,8 C 7,2 C 93 % 1014,7 hPa 0,0 l/m 0 min 0 min 40 W/m 16,1 km/h (3 Bft) 100,00 %
17.01.2020 14:38 9,3 C 7,8 C 7,2 C 93 % 1014,8 hPa 0,0 l/m 0 min 0 min 40 W/m 3,2 km/h (1 Bft) 100,00 %
17.01.2020 14:40 9,3 C 7,8 C 7,2 C 93 % 1014,7 hPa 0,0 l/m 0 min 0 min 40 W/m 12,9 km/h (3 Bft) 100,00 %
17.01.2020 14:42 9,3 C 7,8 C 7,2 C 93 % 1014,7 hPa 0,0 l/m 0 min 0 min 39 W/m 0,0 km/h (0 Bft) 100,00 %
17.01.2020 14:44 9,3 C 7,8 C 7,2 C 93 % 1014,7 hPa 0,0 l/m 0 min 0 min 33 W/m 0,0 km/h (0 Bft) 100,00 %
17.01.2020 14:46 9,3 C 7,8 C 7,2 C 93 % 1014,7 hPa 0,0 l/m 0 min 0 min 30 W/m 19,3 km/h (3 Bft) 97,87 %
17.01.2020 14:48 9,3 C 7,8 C 7,2 C 93 % 1014,8 hPa 0,0 l/m 0 min 0 min 29 W/m 0,0 km/h (0 Bft) 100,00 %
17.01.2020 14:50 9,3 C 7,8 C 7,2 C 94 % 1014,7 hPa 0,0 l/m 0 min 0 min 32 W/m 0,0 km/h (0 Bft) 100,00 %
17.01.2020 14:52 9,3 C 7,8 C 7,2 C 93 % 1014,7 hPa 0,0 l/m 0 min 2 min 31 W/m 0,0 km/h (0 Bft) 100,00 %
17.01.2020 14:54 9,3 C 7,8 C 7,2 C 93 % 1014,7 hPa 0,0 l/m 0 min 0 min 28 W/m 3,2 km/h (1 Bft) 100,00 %
17.01.2020 14:56 9,3 C 7,8 C 7,2 C 93 % 1014,8 hPa 0,0 l/m 0 min 0 min 27 W/m 0,0 km/h (0 Bft) 100,00 %
17.01.2020 14:58 9,3 C 7,8 C 7,2 C 94 % 1014,8 hPa 0,0 l/m 0 min 0 min 28 W/m 0,0 km/h (0 Bft) 100,00 %
17.01.2020 15:00 9,3 C 7,8 C 7,2 C 94 % 1014,8 hPa 0,0 l/m 0 min 2 min 26 W/m 19,3 km/h (3 Bft) 100,00 %
17.01.2020 15:02 9,2 C 7,8 C 7,2 C 94 % 1014,8 hPa 0,0 l/m 0 min 0 min 22 W/m 0,0 km/h (0 Bft) 100,00 %
17.01.2020 15:04 9,2 C 7,8 C 7,2 C 94 % 1014,8 hPa 0,0 l/m 0 min 0 min 20 W/m 0,0 km/h (0 Bft) 100,00 %
17.01.2020 15:06 9,2 C 7,8 C 7,2 C 94 % 1014,9 hPa 0,0 l/m 0 min 0 min 18 W/m 22,5 km/h (4 Bft) 100,00 %
17.01.2020 15:08 9,2 C 7,8 C 7,2 C 94 % 1014,8 hPa 0,0 l/m 0 min 0 min 15 W/m 0,0 km/h (0 Bft) 97,87 %
17.01.2020 15:10 9,2 C 7,8 C 7,2 C 94 % 1014,8 hPa 0,0 l/m 0 min 0 min 14 W/m 3,2 km/h (1 Bft) 100,00 %
17.01.2020 15:12 9,2 C 7,8 C 7,2 C 94 % 1014,8 hPa 0,0 l/m 0 min 0 min 14 W/m 29,0 km/h (5 Bft) 95,74 %
17.01.2020 15:14 9,2 C 8,3 C 7,2 C 94 % 1014,8 hPa 0,0 l/m 0 min 0 min 15 W/m 16,1 km/h (3 Bft) 100,00 %
17.01.2020 15:16 9,2 C 8,3 C 7,8 C 94 % 1014,8 hPa 0,0 l/m 0 min 0 min 20 W/m 0,0 km/h (0 Bft) 100,00 %
17.01.2020 15:18 9,2 C 8,3 C 7,8 C 94 % 1014,7 hPa 0,0 l/m 0 min 0 min 25 W/m 0,0 km/h (0 Bft) 100,00 %
17.01.2020 15:20 9,2 C 8,3 C 7,8 C 94 % 1014,8 hPa 0,0 l/m 0 min 0 min 30 W/m 0,0 km/h (0 Bft) 97,87 %
17.01.2020 15:22 9,2 C 8,3 C 7,8 C 94 % 1014,8 hPa 0,0 l/m 0 min 0 min 31 W/m 0,0 km/h (0 Bft) 97,87 %
17.01.2020 15:24 9,2 C 8,3 C 7,8 C 94 % 1014,8 hPa 0,0 l/m 0 min 0 min 27 W/m 0,0 km/h (0 Bft) 97,87 %
17.01.2020 15:26 9,2 C 8,3 C 7,8 C 94 % 1014,8 hPa 0,0 l/m 0 min 0 min 28 W/m 0,0 km/h (0 Bft) 97,87 %
17.01.2020 15:28 9,2 C 8,3 C 7,8 C 94 % 1014,8 hPa 0,0 l/m 0 min 0 min 36 W/m 0,0 km/h (0 Bft) 97,87 %
17.01.2020 15:30 9,2 C 8,3 C 7,8 C 94 % 1014,8 hPa 0,0 l/m 0 min 0 min 40 W/m 6,4 km/h (2 Bft) 97,83 %
17.01.2020 15:32 9,3 C 8,3 C 7,8 C 94 % 1014,8 hPa 0,0 l/m 0 min 0 min 46 W/m 12,9 km/h (3 Bft) 97,87 %
17.01.2020 15:34 9,3 C 8,3 C 7,8 C 94 % 1014,7 hPa 0,0 l/m 0 min 0 min 41 W/m 3,2 km/h (1 Bft) 97,87 %
17.01.2020 15:36 9,3 C 8,3 C 7,8 C 94 % 1014,7 hPa 0,0 l/m 0 min 0 min 34 W/m 0,0 km/h (0 Bft) 97,87 %
17.01.2020 15:38 9,3 C 8,3 C 7,8 C 94 % 1014,8 hPa 0,0 l/m 0 min 0 min 33 W/m 19,3 km/h (3 Bft) 95,74 %
17.01.2020 15:40 9,3 C 8,3 C 7,8 C 94 % 1014,8 hPa 0,0 l/m 0 min 0 min 27 W/m 0,0 km/h (0 Bft) 97,87 %
17.01.2020 15:42 9,3 C 8,3 C 7,8 C 94 % 1014,8 hPa 0,0 l/m 0 min 0 min 24 W/m 3,2 km/h (1 Bft) 95,65 %
17.01.2020 15:44 9,3 C 8,9 C 7,8 C 94 % 1014,9 hPa 0,0 l/m 0 min 0 min 20 W/m 16,1 km/h (3 Bft) 95,74 %
17.01.2020 15:46 9,3 C 8,9 C 7,8 C 94 % 1014,9 hPa 0,0 l/m 0 min 0 min 24 W/m 0,0 km/h (0 Bft) 95,74 %
17.01.2020 15:48 9,3 C 8,9 C 7,8 C 94 % 1014,8 hPa 0,0 l/m 0 min 0 min 28 W/m 0,0 km/h (0 Bft) 95,74 %
17.01.2020 15:50 9,3 C 8,9 C 7,8 C 94 % 1014,9 hPa 0,0 l/m 0 min 0 min 27 W/m 0,0 km/h (0 Bft) 95,74 %
17.01.2020 15:52 9,3 C 8,9 C 7,8 C 94 % 1014,9 hPa 0,0 l/m 0 min 0 min 25 W/m 0,0 km/h (0 Bft) 95,65 %
17.01.2020 15:54 9,3 C 8,9 C 7,8 C 94 % 1014,9 hPa 0,0 l/m 0 min 0 min 24 W/m 19,3 km/h (3 Bft) 93,62 %
17.01.2020 15:56 9,3 C 8,9 C 7,8 C 94 % 1014,9 hPa 0,0 l/m 0 min 0 min 21 W/m 0,0 km/h (0 Bft) 95,74 %
17.01.2020 15:58 9,3 C 8,9 C 7,8 C 94 % 1015,0 hPa 0,0 l/m 0 min 0 min 19 W/m 3,2 km/h (1 Bft) 93,62 %
17.01.2020 16:00 9,3 C 8,9 C 7,8 C 94 % 1015,1 hPa 0,0 l/m 0 min 0 min 18 W/m 3,2 km/h (1 Bft) 95,74 %
17.01.2020 16:02 9,3 C 8,9 C 8,3 C 94 % 1015,1 hPa 0,0 l/m 0 min 0 min 18 W/m 0,0 km/h (0 Bft) 93,62 %
17.01.2020 16:04 9,3 C 8,9 C 8,3 C 94 % 1015,1 hPa 0,0 l/m 0 min 0 min 18 W/m 0,0 km/h (0 Bft) 95,65 %
17.01.2020 16:06 9,3 C 8,9 C 8,3 C 94 % 1015,2 hPa 0,0 l/m 0 min 0 min 17 W/m 0,0 km/h (0 Bft) 93,62 %
17.01.2020 16:08 9,3 C 8,9 C 8,3 C 94 % 1015,2 hPa 0,0 l/m 0 min 0 min 12 W/m 0,0 km/h (0 Bft) 93,62 %
17.01.2020 16:10 9,3 C 8,9 C 8,3 C 94 % 1015,2 hPa 0,0 l/m 0 min 0 min 8 W/m 0,0 km/h (0 Bft) 95,74 %
17.01.2020 16:12 9,4 C 8,9 C 8,3 C 94 % 1015,3 hPa 0,0 l/m 0 min 0 min 8 W/m 0,0 km/h (0 Bft) 93,62 %
17.01.2020 16:14 9,4 C 8,9 C 8,3 C 94 % 1015,2 hPa 0,0 l/m 0 min 0 min 7 W/m 0,0 km/h (0 Bft) 95,74 %
17.01.2020 16:16 9,4 C 8,9 C 8,3 C 94 % 1015,2 hPa 0,0 l/m 0 min 0 min 7 W/m 3,2 km/h (1 Bft) 93,48 %
17.01.2020 16:18 9,4 C 8,9 C 8,3 C 94 % 1015,2 hPa 0,0 l/m 0 min 0 min 9 W/m 19,3 km/h (3 Bft) 93,62 %
17.01.2020 16:20 9,4 C 8,9 C 8,3 C 94 % 1015,2 hPa 0,0 l/m 0 min 0 min 11 W/m 6,4 km/h (2 Bft) 95,74 %
17.01.2020 16:22 9,4 C 8,9 C 8,3 C 94 % 1015,2 hPa 0,0 l/m 0 min 0 min 11 W/m 0,0 km/h (0 Bft) 95,74 %
17.01.2020 16:24 9,4 C 8,9 C 8,3 C 93 % 1015,2 hPa 0,0 l/m 0 min 0 min 13 W/m 0,0 km/h (0 Bft) 95,74 %
17.01.2020 16:26 9,4 C 8,9 C 8,3 C 93 % 1015,2 hPa 0,0 l/m 0 min 0 min 22 W/m 3,2 km/h (1 Bft) 95,74 %
17.01.2020 16:28 9,4 C 8,9 C 8,3 C 93 % 1015,2 hPa 0,0 l/m 2 min 0 min 31 W/m 3,2 km/h (1 Bft) 95,65 %
17.01.2020 16:30 9,4 C 8,9 C 8,3 C 93 % 1015,2 hPa 0,0 l/m 2 min 0 min 28 W/m 16,1 km/h (3 Bft) 91,49 %
17.01.2020 16:32 9,4 C 8,9 C 8,3 C 93 % 1015,2 hPa 0,0 l/m 2 min 0 min 26 W/m 19,3 km/h (3 Bft) 97,87 %
17.01.2020 16:34 9,4 C 8,9 C 8,3 C 93 % 1015,2 hPa 0,0 l/m 2 min 0 min 27 W/m 16,1 km/h (3 Bft) 97,87 %
17.01.2020 16:36 9,4 C 8,9 C 8,3 C 93 % 1015,3 hPa 0,0 l/m 2 min 0 min 27 W/m 35,4 km/h (5 Bft) 97,87 %
17.01.2020 16:38 9,4 C 8,9 C 8,3 C 93 % 1015,2 hPa 0,0 l/m 2 min 0 min 28 W/m 29,0 km/h (5 Bft) 95,74 %
17.01.2020 16:40 9,4 C 8,9 C 8,3 C 93 % 1015,2 hPa 0,0 l/m 2 min 0 min 23 W/m 6,4 km/h (2 Bft) 95,65 %
17.01.2020 16:42 9,5 C 8,9 C 8,3 C 93 % 1015,3 hPa 0,0 l/m 0 min 0 min 19 W/m 19,3 km/h (3 Bft) 95,74 %
17.01.2020 16:44 9,5 C 8,9 C 8,3 C 93 % 1015,3 hPa 0,0 l/m 0 min 0 min 18 W/m 22,5 km/h (4 Bft) 97,87 %
17.01.2020 16:46 9,5 C 8,9 C 8,3 C 93 % 1015,3 hPa 0,0 l/m 0 min 0 min 14 W/m 19,3 km/h (3 Bft) 97,78 %
17.01.2020 16:48 9,4 C 8,9 C 8,3 C 93 % 1015,3 hPa 0,0 l/m 0 min 0 min 12 W/m 6,4 km/h (2 Bft) 95,74 %
17.01.2020 16:50 9,4 C 8,3 C 8,3 C 93 % 1015,4 hPa 0,0 l/m 0 min 0 min 11 W/m 16,1 km/h (3 Bft) 97,83 %
17.01.2020 16:52 9,4 C 8,3 C 7,8 C 93 % 1015,4 hPa 0,0 l/m 0 min 0 min 9 W/m 3,2 km/h (1 Bft) 97,87 %
17.01.2020 16:54 9,4 C 8,3 C 7,8 C 93 % 1015,4 hPa 0,0 l/m 0 min 0 min 7 W/m 3,2 km/h (1 Bft) 95,74 %
17.01.2020 16:56 9,4 C 8,3 C 7,8 C 93 % 1015,5 hPa 0,0 l/m 0 min 0 min 7 W/m 12,9 km/h (3 Bft) 97,87 %
17.01.2020 16:58 9,4 C 8,3 C 7,8 C 93 % 1015,5 hPa 0,0 l/m 0 min 0 min 7 W/m 3,2 km/h (1 Bft) 95,74 %
17.01.2020 17:00 9,3 C 8,3 C 7,8 C 93 % 1015,5 hPa 0,0 l/m 0 min 0 min 6 W/m 0,0 km/h (0 Bft) 97,83 %
17.01.2020 17:02 9,3 C 8,3 C 7,8 C 93 % 1015,5 hPa 0,0 l/m 0 min 0 min 6 W/m 0,0 km/h (0 Bft) 97,87 %
17.01.2020 17:04 9,3 C 8,3 C 7,8 C 93 % 1015,6 hPa 0,0 l/m 0 min 0 min 7 W/m 0,0 km/h (0 Bft) 97,87 %
17.01.2020 17:06 9,3 C 8,3 C 7,8 C 93 % 1015,6 hPa 0,0 l/m 0 min 0 min 7 W/m 0,0 km/h (0 Bft) 97,87 %
17.01.2020 17:08 9,3 C 8,3 C 7,8 C 93 % 1015,6 hPa 0,0 l/m 0 min 0 min 7 W/m 6,4 km/h (2 Bft) 100,00 %
17.01.2020 17:10 9,2 C 8,3 C 7,8 C 93 % 1015,6 hPa 0,0 l/m 0 min 0 min 5 W/m 0,0 km/h (0 Bft) 97,87 %
17.01.2020 17:12 9,2 C 8,3 C 7,8 C 93 % 1015,6 hPa 0,0 l/m 0 min 0 min 1 W/m 0,0 km/h (0 Bft) 95,65 %
17.01.2020 17:14 9,2 C 8,3 C 7,8 C 93 % 1015,6 hPa 0,0 l/m 0 min 0 min 0 W/m 0,0 km/h (0 Bft) 100,00 %
17.01.2020 17:16 9,2 C 7,8 C 7,8 C 93 % 1015,7 hPa 0,0 l/m 0 min 0 min 0 W/m 0,0 km/h (0 Bft) 100,00 %
17.01.2020 17:18 9,1 C 8,3 C 7,8 C 93 % 1015,7 hPa 0,0 l/m 0 min 0 min 0 W/m 0,0 km/h (0 Bft) 97,87 %
17.01.2020 17:20 9,1 C 7,8 C 7,8 C 93 % 1015,6 hPa 0,0 l/m 0 min 0 min 0 W/m 0,0 km/h (0 Bft) 97,87 %
17.01.2020 17:22 9,1 C 7,8 C 7,8 C 93 % 1015,7 hPa 0,0 l/m 0 min 0 min 0 W/m 0,0 km/h (0 Bft) 100,00 %
17.01.2020 17:24 9,1 C 7,8 C 7,8 C 93 % 1015,8 hPa 0,0 l/m 0 min 0 min 0 W/m 6,4 km/h (2 Bft) 100,00 %
17.01.2020 17:26 9,1 C 7,8 C 7,2 C 93 % 1015,8 hPa 0,0 l/m 0 min 0 min 0 W/m 19,3 km/h (3 Bft) 100,00 %
17.01.2020 17:28 9,0 C 7,8 C 7,8 C 93 % 1015,7 hPa 0,0 l/m 0 min 0 min 0 W/m 3,2 km/h (1 Bft) 100,00 %
17.01.2020 17:30 9,0 C 7,8 C 7,8 C 93 % 1015,8 hPa 0,0 l/m 0 min 0 min 0 W/m 12,9 km/h (3 Bft) 100,00 %
17.01.2020 17:32 8,9 C 7,8 C 7,8 C 93 % 1015,8 hPa 0,0 l/m 0 min 0 min 0 W/m 0,0 km/h (0 Bft) 97,87 %
17.01.2020 17:34 8,9 C 7,8 C 7,2 C 93 % 1015,9 hPa 0,0 l/m 0 min 0 min 0 W/m 0,0 km/h (0 Bft) 100,00 %
17.01.2020 17:36 8,9 C 7,8 C 7,2 C 93 % 1015,9 hPa 0,0 l/m 0 min 0 min 0 W/m 0,0 km/h (0 Bft) 100,00 %
17.01.2020 17:38 8,9 C 7,8 C 7,2 C 93 % 1015,9 hPa 0,0 l/m 0 min 0 min 0 W/m 3,2 km/h (1 Bft) 100,00 %
17.01.2020 17:40 8,9 C 7,8 C 7,2 C 93 % 1015,9 hPa 0,0 l/m 0 min 0 min 0 W/m 0,0 km/h (0 Bft) 97,87 %
17.01.2020 17:42 8,8 C 7,8 C 7,2 C 93 % 1015,9 hPa 0,0 l/m 0 min 0 min 0 W/m 0,0 km/h (0 Bft) 100,00 %
17.01.2020 17:44 8,8 C 7,8 C 7,2 C 93 % 1015,9 hPa 0,0 l/m 0 min 0 min 0 W/m 0,0 km/h (0 Bft) 100,00 %
17.01.2020 17:46 8,8 C 7,8 C 7,2 C 93 % 1015,9 hPa 0,0 l/m 0 min 0 min 0 W/m 9,7 km/h (2 Bft) 100,00 %
17.01.2020 17:48 8,8 C 7,8 C 7,2 C 93 % 1016,0 hPa 0,0 l/m 0 min 0 min 0 W/m 3,2 km/h (1 Bft) 97,83 %
17.01.2020 17:50 8,8 C 7,8 C 7,2 C 93 % 1015,9 hPa 0,0 l/m 0 min 0 min 0 W/m 3,2 km/h (1 Bft) 100,00 %
17.01.2020 17:52 8,8 C 7,8 C 7,2 C 93 % 1016,0 hPa 0,0 l/m 0 min 0 min 0 W/m 3,2 km/h (1 Bft) 100,00 %
17.01.2020 17:54 8,7 C 7,8 C 7,2 C 93 % 1016,0 hPa 0,0 l/m 0 min 0 min 0 W/m 0,0 km/h (0 Bft) 100,00 %
17.01.2020 17:56 8,7 C 7,8 C 7,2 C 93 % 1016,0 hPa 0,0 l/m 0 min 0 min 0 W/m 0,0 km/h (0 Bft) 97,87 %
17.01.2020 17:58 8,7 C 7,8 C 7,2 C 93 % 1016,1 hPa 0,0 l/m 0 min 0 min 0 W/m 0,0 km/h (0 Bft) 97,83 %
17.01.2020 18:00 8,7 C 7,8 C 7,2 C 93 % 1016,2 hPa 0,0 l/m 0 min 0 min 0 W/m 0,0 km/h (0 Bft) 97,87 %
17.01.2020 18:02 8,7 C 7,8 C 7,2 C 93 % 1016,1 hPa 0,0 l/m 0 min 0 min 0 W/m 0,0 km/h (0 Bft) 97,87 %
17.01.2020 18:04 8,7 C 7,8 C 7,2 C 93 % 1016,2 hPa 0,0 l/m 0 min 0 min 0 W/m 0,0 km/h (0 Bft) 97,87 %
17.01.2020 18:06 8,6 C 7,8 C 7,2 C 93 % 1016,3 hPa 0,0 l/m 0 min 0 min 0 W/m 0,0 km/h (0 Bft) 97,87 %
17.01.2020 18:08 8,6 C 7,8 C 7,2 C 93 % 1016,3 hPa 0,0 l/m 0 min 0 min 0 W/m 0,0 km/h (0 Bft) 97,87 %
17.01.2020 18:10 8,6 C 7,8 C 7,2 C 93 % 1016,3 hPa 0,0 l/m 0 min 2 min 0 W/m 0,0 km/h (0 Bft) 97,87 %
17.01.2020 18:12 8,6 C 7,8 C 7,2 C 93 % 1016,3 hPa 0,0 l/m 0 min 0 min 0 W/m 0,0 km/h (0 Bft) 97,83 %
17.01.2020 18:14 8,6 C 7,8 C 7,2 C 93 % 1016,2 hPa 0,0 l/m 0 min 0 min 0 W/m 0,0 km/h (0 Bft) 97,87 %
17.01.2020 18:16 8,6 C 7,2 C 7,2 C 93 % 1016,3 hPa 0,0 l/m 0 min 0 min 0 W/m 0,0 km/h (0 Bft) 97,87 %
17.01.2020 18:18 8,6 C 7,2 C 6,7 C 93 % 1016,3 hPa 0,0 l/m 0 min 0 min 0 W/m 0,0 km/h (0 Bft) 97,87 %
17.01.2020 18:20 8,6 C 7,2 C 6,7 C 93 % 1016,3 hPa 0,0 l/m 0 min 0 min 0 W/m 0,0 km/h (0 Bft) 97,87 %
17.01.2020 18:22 8,5 C 7,2 C 6,7 C 93 % 1016,3 hPa 0,0 l/m 0 min 0 min 0 W/m 0,0 km/h (0 Bft) 97,83 %
17.01.2020 18:24 8,5 C 7,2 C 6,7 C 93 % 1016,3 hPa 0,0 l/m 0 min 0 min 0 W/m 0,0 km/h (0 Bft) 97,87 %
17.01.2020 18:26 8,4 C 7,2 C 6,7 C 93 % 1016,3 hPa 0,0 l/m 0 min 0 min 0 W/m 0,0 km/h (0 Bft) 97,87 %
17.01.2020 18:28 8,4 C 7,2 C 6,7 C 93 % 1016,4 hPa 0,0 l/m 0 min 0 min 0 W/m 3,2 km/h (1 Bft) 97,87 %
17.01.2020 18:30 8,4 C 7,2 C 6,7 C 93 % 1016,4 hPa 0,0 l/m 0 min 0 min 0 W/m 0,0 km/h (0 Bft) 97,87 %
17.01.2020 18:32 8,4 C 7,2 C 6,7 C 93 % 1016,4 hPa 0,0 l/m 0 min 0 min 0 W/m 0,0 km/h (0 Bft) 93,88 %
17.01.2020 18:34 8,4 C 7,2 C 6,7 C 93 % 1016,4 hPa 0,0 l/m 0 min 0 min 0 W/m 0,0 km/h (0 Bft) 95,74 %
17.01.2020 18:36 8,3 C 7,2 C 6,7 C 93 % 1016,4 hPa 0,0 l/m 0 min 0 min 0 W/m 0,0 km/h (0 Bft) 95,65 %
17.01.2020 18:38 8,3 C 7,2 C 6,7 C 93 % 1016,5 hPa 0,0 l/m 0 min 0 min 0 W/m 0,0 km/h (0 Bft) 95,74 %
17.01.2020 18:40 8,3 C 7,2 C 6,7 C 93 % 1016,5 hPa 0,0 l/m 0 min 0 min 0 W/m 0,0 km/h (0 Bft) 95,74 %
17.01.2020 18:42 8,3 C 7,2 C 6,7 C 93 % 1016,6 hPa 0,0 l/m 0 min 0 min 0 W/m 3,2 km/h (1 Bft) 93,62 %
17.01.2020 18:44 8,3 C 7,2 C 6,7 C 93 % 1016,8 hPa 0,0 l/m 0 min 0 min 0 W/m 0,0 km/h (0 Bft) 95,74 %
17.01.2020 18:46 8,2 C 7,2 C 6,7 C 93 % 1016,8 hPa 0,0 l/m 0 min 2 min 0 W/m 0,0 km/h (0 Bft) 97,87 %
17.01.2020 18:48 8,2 C 6,7 C 6,7 C 93 % 1016,8 hPa 0,2 l/m 0 min 2 min 0 W/m 0,0 km/h (0 Bft) 95,65 %
17.01.2020 18:50 8,2 C 6,7 C 6,1 C 93 % 1016,8 hPa 0,0 l/m 0 min 2 min 0 W/m 3,2 km/h (1 Bft) 97,87 %
17.01.2020 18:52 8,2 C 6,7 C 6,1 C 93 % 1016,8 hPa 0,0 l/m 0 min 2 min 0 W/m 9,7 km/h (2 Bft) 97,87 %
17.01.2020 18:54 8,2 C 6,7 C 6,1 C 94 % 1016,8 hPa 0,0 l/m 0 min 2 min 0 W/m 0,0 km/h (0 Bft) 97,87 %
17.01.2020 18:56 8,2 C 6,7 C 6,1 C 94 % 1016,9 hPa 0,0 l/m 0 min 2 min 0 W/m 0,0 km/h (0 Bft) 97,87 %
17.01.2020 18:58 8,2 C 6,7 C 6,1 C 94 % 1016,9 hPa 0,2 l/m 0 min 2 min 0 W/m 22,5 km/h (4 Bft) 97,87 %
17.01.2020 19:00 8,2 C 6,7 C 6,1 C 94 % 1016,9 hPa 0,0 l/m 0 min 2 min 0 W/m 12,9 km/h (3 Bft) 91,30 %
17.01.2020 19:02 8,2 C 6,1 C 6,1 C 93 % 1016,8 hPa 0,0 l/m 0 min 2 min 0 W/m 3,2 km/h (1 Bft) 97,87 %
17.01.2020 19:04 8,2 C 6,1 C 6,1 C 93 % 1016,8 hPa 0,2 l/m 0 min 2 min 0 W/m 16,1 km/h (3 Bft) 94,12 %
17.01.2020 19:06 8,1 C 6,1 C 5,6 C 94 % 1016,8 hPa 0,0 l/m 0 min 2 min 0 W/m 0,0 km/h (0 Bft) 97,87 %
17.01.2020 19:08 8,1 C 6,1 C 5,6 C 93 % 1016,8 hPa 0,0 l/m 0 min 0 min 0 W/m 3,2 km/h (1 Bft) 95,65 %
17.01.2020 19:10 8,1 C 6,1 C 5,6 C 93 % 1016,9 hPa 0,0 l/m 0 min 0 min 0 W/m 3,2 km/h (1 Bft) 97,87 %
17.01.2020 19:12 8,0 C 6,1 C 5,6 C 93 % 1016,9 hPa 0,0 l/m 0 min 0 min 0 W/m 0,0 km/h (0 Bft) 97,87 %
17.01.2020 19:14 8,0 C 6,1 C 5,6 C 93 % 1016,9 hPa 0,0 l/m 0 min 0 min 0 W/m 0,0 km/h (0 Bft) 97,87 %
17.01.2020 19:16 7,9 C 6,1 C 5,6 C 93 % 1016,9 hPa 0,0 l/m 0 min 0 min 0 W/m 6,4 km/h (2 Bft) 97,87 %
17.01.2020 19:18 7,9 C 6,1 C 5,6 C 93 % 1016,9 hPa 0,0 l/m 0 min 0 min 0 W/m 0,0 km/h (0 Bft) 95,74 %
17.01.2020 19:20 7,8 C 6,1 C 5,0 C 93 % 1016,9 hPa 0,0 l/m 0 min 0 min 0 W/m 0,0 km/h (0 Bft) 100,00 %
17.01.2020 19:22 7,8 C 5,6 C 5,0 C 93 % 1017,0 hPa 0,0 l/m 0 min 0 min 0 W/m 0,0 km/h (0 Bft) 97,87 %
17.01.2020 19:24 7,7 C 5,6 C 5,0 C 93 % 1017,0 hPa 0,0 l/m 0 min 0 min 0 W/m 0,0 km/h (0 Bft) 97,87 %
17.01.2020 19:26 7,7 C 5,6 C 5,0 C 93 % 1017,0 hPa 0,0 l/m 0 min 0 min 0 W/m 0,0 km/h (0 Bft) 100,00 %
17.01.2020 19:28 7,7 C 5,6 C 5,0 C 93 % 1017,0 hPa 0,0 l/m 0 min 0 min 0 W/m 0,0 km/h (0 Bft) 100,00 %
17.01.2020 19:30 7,6 C 5,6 C 5,0 C 93 % 1017,1 hPa 0,0 l/m 0 min 0 min 0 W/m 0,0 km/h (0 Bft) 95,65 %
17.01.2020 19:32 7,6 C 5,6 C 5,0 C 93 % 1017,1 hPa 0,0 l/m 0 min 0 min 0 W/m 0,0 km/h (0 Bft) 100,00 %
17.01.2020 19:34 7,6 C 5,6 C 5,0 C 93 % 1017,2 hPa 0,0 l/m 0 min 0 min 0 W/m 0,0 km/h (0 Bft) 100,00 %
17.01.2020 19:36 7,5 C 6,1 C 5,0 C 93 % 1017,2 hPa 0,0 l/m 0 min 0 min 0 W/m 0,0 km/h (0 Bft) 100,00 %
17.01.2020 19:38 7,5 C 6,1 C 5,0 C 93 % 1017,3 hPa 0,0 l/m 0 min 0 min 0 W/m 0,0 km/h (0 Bft) 100,00 %
17.01.2020 19:40 7,4 C 6,1 C 5,6 C 93 % 1017,3 hPa 0,0 l/m 0 min 0 min 0 W/m 0,0 km/h (0 Bft) 100,00 %
17.01.2020 19:42 7,4 C 6,1 C 5,6 C 93 % 1017,3 hPa 0,0 l/m 0 min 0 min 0 W/m 0,0 km/h (0 Bft) 100,00 %
17.01.2020 19:44 7,4 C 6,1 C 5,6 C 93 % 1017,3 hPa 0,0 l/m 0 min 0 min 0 W/m 3,2 km/h (1 Bft) 100,00 %
17.01.2020 19:46 7,4 C 6,1 C 5,6 C 93 % 1017,3 hPa 0,0 l/m 0 min 0 min 0 W/m 0,0 km/h (0 Bft) 100,00 %
17.01.2020 19:48 7,4 C 6,1 C 5,6 C 93 % 1017,4 hPa 0,0 l/m 0 min 0 min 0 W/m 0,0 km/h (0 Bft) 100,00 %
17.01.2020 19:50 7,4 C 6,1 C 5,6 C 93 % 1017,4 hPa 0,0 l/m 0 min 0 min 0 W/m 0,0 km/h (0 Bft) 97,87 %
17.01.2020 19:52 7,4 C 6,1 C 5,6 C 93 % 1017,4 hPa 0,0 l/m 0 min 0 min 0 W/m 9,7 km/h (2 Bft) 97,87 %
17.01.2020 19:54 7,4 C 6,1 C 5,6 C 93 % 1017,5 hPa 0,0 l/m 0 min 0 min 0 W/m 3,2 km/h (1 Bft) 97,83 %
17.01.2020 19:56 7,3 C 6,1 C 5,6 C 93 % 1017,5 hPa 0,0 l/m 0 min 0 min 0 W/m 12,9 km/h (3 Bft) 97,87 %
17.01.2020 19:58 7,4 C 6,1 C 5,6 C 93 % 1017,6 hPa 0,0 l/m 0 min 0 min 0 W/m 6,4 km/h (2 Bft) 97,87 %
17.01.2020 20:00 7,3 C 6,1 C 5,6 C 93 % 1017,7 hPa 0,0 l/m 0 min 0 min 0 W/m 3,2 km/h (1 Bft) 97,87 %
17.01.2020 20:02 7,3 C 6,1 C 5,6 C 93 % 1017,7 hPa 0,0 l/m 0 min 0 min 0 W/m 35,4 km/h (5 Bft) 97,87 %
17.01.2020 20:04 7,3 C 6,1 C 5,6 C 93 % 1017,7 hPa 0,0 l/m 0 min 0 min 0 W/m 16,1 km/h (3 Bft) 97,87 %
17.01.2020 20:06 7,4 C 6,1 C 5,6 C 93 % 1017,8 hPa 0,0 l/m 0 min 0 min 0 W/m 3,2 km/h (1 Bft) 95,65 %
17.01.2020 20:08 7,4 C 6,1 C 5,6 C 93 % 1017,7 hPa 0,0 l/m 0 min 0 min 0 W/m 0,0 km/h (0 Bft) 97,87 %
17.01.2020 20:10 7,3 C 6,1 C 5,6 C 93 % 1017,8 hPa 0,0 l/m 0 min 0 min 0 W/m 0,0 km/h (0 Bft) 97,87 %
17.01.2020 20:12 7,3 C 6,1 C 5,6 C 93 % 1017,8 hPa 0,0 l/m 0 min 0 min 0 W/m 12,9 km/h (3 Bft) 97,87 %
17.01.2020 20:14 7,3 C 6,1 C 5,6 C 92 % 1017,9 hPa 0,0 l/m 0 min 0 min 0 W/m 6,4 km/h (2 Bft) 95,74 %
17.01.2020 20:16 7,3 C 6,1 C 5,6 C 92 % 1017,9 hPa 0,0 l/m 0 min 0 min 0 W/m 6,4 km/h (2 Bft) 97,87 %
17.01.2020 20:18 7,3 C 6,1 C 5,0 C 92 % 1017,9 hPa 0,0 l/m 0 min 0 min 0 W/m 12,9 km/h (3 Bft) 97,83 %
17.01.2020 20:20 7,3 C 5,6 C 5,0 C 91 % 1018,0 hPa 0,0 l/m 0 min 0 min 0 W/m 6,4 km/h (2 Bft) 97,87 %
17.01.2020 20:22 7,3 C 5,6 C 5,0 C 91 % 1018,0 hPa 0,0 l/m 0 min 0 min 0 W/m 3,2 km/h (1 Bft) 97,87 %
17.01.2020 20:24 7,3 C 5,6 C 5,0 C 91 % 1018,0 hPa 0,0 l/m 0 min 0 min 0 W/m 0,0 km/h (0 Bft) 95,74 %
17.01.2020 20:26 7,3 C 5,6 C 5,0 C 91 % 1018,1 hPa 0,0 l/m 0 min 0 min 0 W/m 3,2 km/h (1 Bft) 97,87 %
17.01.2020 20:28 7,2 C 5,6 C 5,0 C 91 % 1018,1 hPa 0,0 l/m 0 min 0 min 0 W/m 12,9 km/h (3 Bft) 97,87 %
17.01.2020 20:30 7,2 C 5,6 C 5,0 C 90 % 1018,1 hPa 0,0 l/m 0 min 0 min 0 W/m 3,2 km/h (1 Bft) 93,48 %
17.01.2020 20:32 7,2 C 5,6 C 5,0 C 90 % 1018,2 hPa 0,0 l/m 0 min 0 min 0 W/m 6,4 km/h (2 Bft) 95,74 %
17.01.2020 20:34 7,2 C 5,6 C 5,0 C 90 % 1018,1 hPa 0,0 l/m 0 min 0 min 0 W/m 3,2 km/h (1 Bft) 95,74 %
17.01.2020 20:36 7,2 C 5,6 C 5,0 C 89 % 1018,2 hPa 0,0 l/m 0 min 0 min 0 W/m 3,2 km/h (1 Bft) 95,74 %
17.01.2020 20:38 7,2 C 5,6 C 5,0 C 89 % 1018,2 hPa 0,0 l/m 0 min 0 min 0 W/m 6,4 km/h (2 Bft) 95,74 %
17.01.2020 20:40 7,2 C 5,6 C 5,0 C 89 % 1018,3 hPa 0,0 l/m 0 min 0 min 0 W/m 16,1 km/h (3 Bft) 95,65 %
17.01.2020 20:42 7,2 C 5,6 C 5,0 C 89 % 1018,3 hPa 0,0 l/m 0 min 0 min 0 W/m 19,3 km/h (3 Bft) 93,62 %
17.01.2020 20:44 7,2 C 5,6 C 5,0 C 88 % 1018,4 hPa 0,0 l/m 0 min 0 min 0 W/m 3,2 km/h (1 Bft) 95,74 %
17.01.2020 20:46 7,2 C 5,6 C 5,0 C 88 % 1018,4 hPa 0,0 l/m 0 min 0 min 0 W/m 12,9 km/h (3 Bft) 95,74 %
17.01.2020 20:48 7,2 C 5,6 C 5,0 C 88 % 1018,4 hPa 0,0 l/m 0 min 0 min 0 W/m 3,2 km/h (1 Bft) 93,62 %
17.01.2020 20:50 7,1 C 5,6 C 5,0 C 88 % 1018,5 hPa 0,0 l/m 0 min 0 min 0 W/m 3,2 km/h (1 Bft) 95,74 %
17.01.2020 20:52 7,1 C 5,6 C 5,0 C 87 % 1018,5 hPa 0,0 l/m 0 min 0 min 0 W/m 0,0 km/h (0 Bft) 95,65 %
17.01.2020 20:54 7,1 C 5,6 C 5,0 C 87 % 1018,5 hPa 0,0 l/m 0 min 0 min 0 W/m 0,0 km/h (0 Bft) 95,74 %
17.01.2020 20:56 7,1 C 5,6 C 5,0 C 87 % 1018,5 hPa 0,0 l/m 0 min 0 min 0 W/m 9,7 km/h (2 Bft) 95,74 %
17.01.2020 20:58 7,0 C 5,6 C 4,4 C 87 % 1018,5 hPa 0,0 l/m 0 min 0 min 0 W/m 38,6 km/h (5 Bft) 97,87 %
17.01.2020 21:00 7,0 C 5,6 C 5,0 C 87 % 1018,5 hPa 0,0 l/m 0 min 0 min 0 W/m 19,3 km/h (3 Bft) 97,87 %
17.01.2020 21:02 6,9 C 5,6 C 5,0 C 87 % 1018,5 hPa 0,0 l/m 0 min 0 min 0 W/m 16,1 km/h (3 Bft) 95,74 %
17.01.2020 21:04 6,9 C 5,6 C 4,4 C 86 % 1018,5 hPa 0,0 l/m 0 min 0 min 0 W/m 3,2 km/h (1 Bft) 95,65 %
17.01.2020 21:06 6,9 C 5,0 C 4,4 C 86 % 1018,5 hPa 0,0 l/m 0 min 0 min 0 W/m 6,4 km/h (2 Bft) 95,74 %
17.01.2020 21:08 6,9 C 5,0 C 4,4 C 86 % 1018,4 hPa 0,0 l/m 0 min 0 min 0 W/m 3,2 km/h (1 Bft) 97,87 %
17.01.2020 21:10 6,8 C 5,0 C 4,4 C 86 % 1018,5 hPa 0,0 l/m 0 min 0 min 0 W/m 9,7 km/h (2 Bft) 97,87 %
17.01.2020 21:12 6,8 C 5,0 C 4,4 C 86 % 1018,5 hPa 0,0 l/m 0 min 0 min 0 W/m 22,5 km/h (4 Bft) 97,87 %
17.01.2020 21:14 6,8 C 5,6 C 4,4 C 86 % 1018,5 hPa 0,0 l/m 0 min 0 min 0 W/m 16,1 km/h (3 Bft) 93,62 %
17.01.2020 21:16 6,8 C 5,6 C 4,4 C 85 % 1018,5 hPa 0,0 l/m 0 min 0 min 0 W/m 25,7 km/h (4 Bft) 100,00 %
17.01.2020 21:18 6,8 C 5,6 C 4,4 C 85 % 1018,5 hPa 0,0 l/m 0 min 0 min 0 W/m 22,5 km/h (4 Bft) 100,00 %
17.01.2020 21:20 6,8 C 5,6 C 4,4 C 85 % 1018,6 hPa 0,0 l/m 0 min 0 min 0 W/m 16,1 km/h (3 Bft) 100,00 %
17.01.2020 21:22 6,8 C 5,0 C 4,4 C 85 % 1018,6 hPa 0,0 l/m 0 min 0 min 0 W/m 9,7 km/h (2 Bft) 97,87 %
17.01.2020 21:24 6,8 C 5,0 C 4,4 C 85 % 1018,6 hPa 0,0 l/m 0 min 0 min 0 W/m 12,9 km/h (3 Bft) 100,00 %
17.01.2020 21:26 6,8 C 5,0 C 4,4 C 85 % 1018,7 hPa 0,0 l/m 0 min 0 min 0 W/m 6,4 km/h (2 Bft) 95,74 %
17.01.2020 21:28 6,7 C 5,0 C 4,4 C 85 % 1018,7 hPa 0,0 l/m 0 min 0 min 0 W/m 16,1 km/h (3 Bft) 97,83 %
17.01.2020 21:30 6,7 C 5,0 C 4,4 C 85 % 1018,7 hPa 0,0 l/m 0 min 0 min 0 W/m 6,4 km/h (2 Bft) 97,87 %
17.01.2020 21:32 6,7 C 5,0 C 4,4 C 85 % 1018,7 hPa 0,0 l/m 0 min 0 min 0 W/m 6,4 km/h (2 Bft) 93,62 %
17.01.2020 21:34 6,7 C 5,0 C 4,4 C 85 % 1018,7 hPa 0,0 l/m 0 min 0 min 0 W/m 9,7 km/h (2 Bft) 97,87 %
17.01.2020 21:36 6,7 C 5,0 C 4,4 C 85 % 1018,7 hPa 0,0 l/m 0 min 0 min 0 W/m 19,3 km/h (3 Bft) 97,87 %
17.01.2020 21:38 6,6 C 5,0 C 4,4 C 85 % 1018,7 hPa 0,0 l/m 0 min 0 min 0 W/m 16,1 km/h (3 Bft) 95,74 %
17.01.2020 21:40 6,6 C 5,0 C 4,4 C 86 % 1018,7 hPa 0,0 l/m 0 min 0 min 0 W/m 16,1 km/h (3 Bft) 95,65 %
17.01.2020 21:42 6,6 C 5,0 C 4,4 C 86 % 1018,7 hPa 0,0 l/m 0 min 0 min 0 W/m 12,9 km/h (3 Bft) 97,87 %
17.01.2020 21:44 6,6 C 5,0 C 4,4 C 86 % 1018,7 hPa 0,0 l/m 0 min 0 min 0 W/m 12,9 km/h (3 Bft) 97,87 %
17.01.2020 21:46 6,6 C 5,0 C 4,4 C 86 % 1018,7 hPa 0,0 l/m 0 min 0 min 0 W/m 9,7 km/h (2 Bft) 97,87 %
17.01.2020 21:48 6,6 C 5,0 C 4,4 C 86 % 1018,8 hPa 0,0 l/m 0 min 0 min 0 W/m 3,2 km/h (1 Bft) 97,87 %
17.01.2020 21:50 6,5 C 5,0 C 4,4 C 86 % 1018,8 hPa 0,0 l/m 0 min 0 min 0 W/m 16,1 km/h (3 Bft) 97,83 %
17.01.2020 21:52 6,5 C 5,0 C 4,4 C 86 % 1018,9 hPa 0,0 l/m 0 min 0 min 0 W/m 9,7 km/h (2 Bft) 95,74 %
17.01.2020 21:54 6,5 C 5,0 C 4,4 C 86 % 1018,9 hPa 0,0 l/m 0 min 0 min 0 W/m 12,9 km/h (3 Bft) 97,87 %
17.01.2020 21:56 6,5 C 5,0 C 4,4 C 86 % 1018,9 hPa 0,0 l/m 0 min 0 min 0 W/m 12,9 km/h (3 Bft) 97,87 %
17.01.2020 21:58 6,5 C 5,0 C 4,4 C 86 % 1019,0 hPa 0,0 l/m 0 min 0 min 0 W/m 6,4 km/h (2 Bft) 95,74 %
17.01.2020 22:00 6,4 C 5,0 C 4,4 C 86 % 1019,1 hPa 0,0 l/m 0 min 0 min 0 W/m 16,1 km/h (3 Bft) 95,74 %
17.01.2020 22:02 6,4 C 5,0 C 4,4 C 86 % 1019,1 hPa 0,0 l/m 0 min 0 min 0 W/m 12,9 km/h (3 Bft) 95,74 %
17.01.2020 22:04 6,4 C 5,0 C 4,4 C 86 % 1019,1 hPa 0,0 l/m 0 min 0 min 0 W/m 9,7 km/h (2 Bft) 97,83 %
17.01.2020 22:06 6,4 C 5,0 C 4,4 C 86 % 1019,2 hPa 0,0 l/m 0 min 0 min 0 W/m 12,9 km/h (3 Bft) 97,87 %
17.01.2020 22:08 6,4 C 5,0 C 4,4 C 86 % 1019,2 hPa 0,0 l/m 0 min 0 min 0 W/m 12,9 km/h (3 Bft) 97,87 %
17.01.2020 22:10 6,3 C 5,0 C 4,4 C 86 % 1019,3 hPa 0,0 l/m 0 min 0 min 0 W/m 0,0 km/h (0 Bft) 97,87 %
17.01.2020 22:12 6,3 C 5,0 C 4,4 C 86 % 1019,4 hPa 0,0 l/m 0 min 0 min 0 W/m 0,0 km/h (0 Bft) 97,87 %
17.01.2020 22:14 6,3 C 5,0 C 4,4 C 86 % 1019,4 hPa 0,0 l/m 0 min 0 min 0 W/m 12,9 km/h (3 Bft) 97,83 %
17.01.2020 22:16 6,3 C 5,0 C 4,4 C 87 % 1019,4 hPa 0,0 l/m 0 min 0 min 0 W/m 0,0 km/h (0 Bft) 95,74 %
17.01.2020 22:18 6,3 C 5,0 C 4,4 C 87 % 1019,4 hPa 0,0 l/m 0 min 0 min 0 W/m 0,0 km/h (0 Bft) 97,87 %
17.01.2020 22:20 6,3 C 5,0 C 3,9 C 87 % 1019,4 hPa 0,0 l/m 0 min 0 min 0 W/m 16,1 km/h (3 Bft) 97,87 %
17.01.2020 22:22 6,2 C 5,0 C 3,9 C 87 % 1019,5 hPa 0,0 l/m 0 min 0 min 0 W/m 12,9 km/h (3 Bft) 100,00 %
17.01.2020 22:24 6,2 C 5,0 C 4,4 C 87 % 1019,6 hPa 0,0 l/m 0 min 0 min 0 W/m 12,9 km/h (3 Bft) 100,00 %
17.01.2020 22:26 6,2 C 5,0 C 4,4 C 87 % 1019,6 hPa 0,0 l/m 0 min 0 min 0 W/m 12,9 km/h (3 Bft) 100,00 %
17.01.2020 22:28 6,2 C 5,0 C 4,4 C 87 % 1019,6 hPa 0,0 l/m 0 min 0 min 0 W/m 6,4 km/h (2 Bft) 97,87 %
17.01.2020 22:30 6,1 C 5,0 C 4,4 C 87 % 1019,6 hPa 0,0 l/m 0 min 0 min 0 W/m 0,0 km/h (0 Bft) 97,87 %
17.01.2020 22:32 6,1 C 5,0 C 4,4 C 87 % 1019,6 hPa 0,0 l/m 0 min 0 min 0 W/m 3,2 km/h (1 Bft) 100,00 %
17.01.2020 22:34 6,1 C 5,0 C 4,4 C 87 % 1019,7 hPa 0,0 l/m 0 min 0 min 0 W/m 3,2 km/h (1 Bft) 100,00 %
17.01.2020 22:36 6,1 C 5,0 C 3,9 C 87 % 1019,7 hPa 0,0 l/m 0 min 0 min 0 W/m 0,0 km/h (0 Bft) 97,83 %
17.01.2020 22:38 6,1 C 5,0 C 4,4 C 87 % 1019,8 hPa 0,0 l/m 0 min 0 min 0 W/m 16,1 km/h (3 Bft) 97,87 %
17.01.2020 22:40 6,1 C 5,0 C 4,4 C 87 % 1019,8 hPa 0,0 l/m 0 min 0 min 0 W/m 12,9 km/h (3 Bft) 100,00 %
17.01.2020 22:42 6,1 C 5,0 C 4,4 C 87 % 1019,8 hPa 0,0 l/m 0 min 0 min 0 W/m 6,4 km/h (2 Bft) 97,87 %
17.01.2020 22:44 6,1 C 5,0 C 4,4 C 88 % 1019,8 hPa 0,0 l/m 0 min 0 min 0 W/m 22,5 km/h (4 Bft) 100,00 %
17.01.2020 22:46 6,1 C 5,0 C 4,4 C 88 % 1019,9 hPa 0,0 l/m 0 min 0 min 0 W/m 3,2 km/h (1 Bft) 100,00 %
17.01.2020 22:48 6,1 C 5,0 C 4,4 C 88 % 1019,8 hPa 0,0 l/m 0 min 0 min 0 W/m 6,4 km/h (2 Bft) 100,00 %
17.01.2020 22:50 6,0 C 5,0 C 4,4 C 88 % 1019,8 hPa 0,0 l/m 0 min 0 min 0 W/m 0,0 km/h (0 Bft) 100,00 %
17.01.2020 22:52 6,0 C 5,0 C 3,9 C 88 % 1019,8 hPa 0,0 l/m 0 min 0 min 0 W/m 0,0 km/h (0 Bft) 97,87 %
17.01.2020 22:54 6,0 C 5,0 C 3,9 C 88 % 1019,8 hPa 0,0 l/m 0 min 0 min 0 W/m 0,0 km/h (0 Bft) 95,74 %
17.01.2020 22:56 5,9 C 5,0 C 3,9 C 88 % 1019,8 hPa 0,0 l/m 0 min 0 min 0 W/m 0,0 km/h (0 Bft) 95,74 %
17.01.2020 22:58 5,9 C 5,0 C 3,9 C 88 % 1019,8 hPa 0,0 l/m 0 min 0 min 0 W/m 16,1 km/h (3 Bft) 95,74 %
17.01.2020 23:00 5,9 C 5,0 C 3,9 C 88 % 1019,9 hPa 0,0 l/m 0 min 0 min 0 W/m 0,0 km/h (0 Bft) 95,65 %
17.01.2020 23:02 5,9 C 5,0 C 3,9 C 88 % 1019,9 hPa 0,0 l/m 0 min 0 min 0 W/m 3,2 km/h (1 Bft) 97,87 %
17.01.2020 23:04 5,9 C 5,0 C 3,9 C 88 % 1020,0 hPa 0,0 l/m 0 min 0 min 0 W/m 3,2 km/h (1 Bft) 97,87 %
17.01.2020 23:06 5,9 C 5,0 C 3,9 C 88 % 1020,0 hPa 0,0 l/m 0 min 0 min 0 W/m 0,0 km/h (0 Bft) 97,87 %
17.01.2020 23:08 5,9 C 5,0 C 3,9 C 88 % 1020,0 hPa 0,0 l/m 0 min 0 min 0 W/m 3,2 km/h (1 Bft) 97,87 %
17.01.2020 23:10 5,8 C 5,0 C 3,9 C 88 % 1020,0 hPa 0,0 l/m 0 min 0 min 0 W/m 3,2 km/h (1 Bft) 97,87 %
17.01.2020 23:12 5,8 C 5,0 C 3,9 C 88 % 1020,0 hPa 0,0 l/m 0 min 0 min 0 W/m 0,0 km/h (0 Bft) 97,83 %
17.01.2020 23:14 5,8 C 5,0 C 3,9 C 88 % 1020,1 hPa 0,0 l/m 0 min 0 min 0 W/m 0,0 km/h (0 Bft) 97,87 %
17.01.2020 23:16 5,8 C 5,0 C 3,9 C 88 % 1020,1 hPa 0,0 l/m 0 min 0 min 0 W/m 6,4 km/h (2 Bft) 97,87 %
17.01.2020 23:18 5,8 C 5,0 C 3,9 C 88 % 1020,2 hPa 0,0 l/m 0 min 0 min 0 W/m 0,0 km/h (0 Bft) 100,00 %
17.01.2020 23:20 5,8 C 5,0 C 3,9 C 88 % 1020,3 hPa 0,0 l/m 0 min 0 min 0 W/m 9,7 km/h (2 Bft) 97,87 %
17.01.2020 23:22 5,8 C 5,0 C 3,9 C 88 % 1020,2 hPa 0,0 l/m 0 min 0 min 0 W/m 0,0 km/h (0 Bft) 97,87 %
17.01.2020 23:24 5,8 C 5,0 C 3,9 C 88 % 1020,2 hPa 0,0 l/m 0 min 0 min 0 W/m 0,0 km/h (0 Bft) 97,83 %
17.01.2020 23:26 5,8 C 5,0 C 3,9 C 88 % 1020,3 hPa 0,0 l/m 0 min 0 min 0 W/m 0,0 km/h (0 Bft) 97,87 %
17.01.2020 23:28 5,8 C 5,0 C 3,9 C 89 % 1020,3 hPa 0,0 l/m 0 min 0 min 0 W/m 0,0 km/h (0 Bft) 95,74 %
17.01.2020 23:30 5,8 C 5,0 C 3,9 C 89 % 1020,3 hPa 0,0 l/m 0 min 0 min 0 W/m 0,0 km/h (0 Bft) 97,87 %
17.01.2020 23:32 5,8 C 5,0 C 3,9 C 89 % 1020,3 hPa 0,0 l/m 0 min 0 min 0 W/m 0,0 km/h (0 Bft) 100,00 %
17.01.2020 23:34 5,8 C 5,0 C 3,9 C 89 % 1020,3 hPa 0,0 l/m 0 min 0 min 0 W/m 3,2 km/h (1 Bft) 97,87 %
17.01.2020 23:36 5,7 C 5,0 C 3,9 C 89 % 1020,4 hPa 0,0 l/m 0 min 0 min 0 W/m 0,0 km/h (0 Bft) 100,00 %
17.01.2020 23:38 5,7 C 5,0 C 3,9 C 89 % 1020,5 hPa 0,0 l/m 0 min 0 min 0 W/m 0,0 km/h (0 Bft) 100,00 %
17.01.2020 23:40 5,7 C 5,0 C 3,9 C 89 % 1020,5 hPa 0,0 l/m 0 min 0 min 0 W/m 0,0 km/h (0 Bft) 100,00 %
17.01.2020 23:42 5,7 C 4,4 C 3,9 C 89 % 1020,5 hPa 0,0 l/m 0 min 0 min 0 W/m 0,0 km/h (0 Bft) 95,74 %
17.01.2020 23:44 5,7 C 4,4 C 3,9 C 89 % 1020,6 hPa 0,0 l/m 0 min 0 min 0 W/m 0,0 km/h (0 Bft) 100,00 %
17.01.2020 23:46 5,7 C 4,4 C 3,9 C 89 % 1020,6 hPa 0,0 l/m 0 min 0 min 0 W/m 0,0 km/h (0 Bft) 100,00 %
17.01.2020 23:48 5,7 C 4,4 C 3,9 C 89 % 1020,6 hPa 0,0 l/m 0 min 0 min 0 W/m 0,0 km/h (0 Bft) 95,74 %
17.01.2020 23:50 5,6 C 4,4 C 3,9 C 89 % 1020,6 hPa 0,0 l/m 0 min 0 min 0 W/m 0,0 km/h (0 Bft) 100,00 %
17.01.2020 23:52 5,6 C 4,4 C 3,9 C 89 % 1020,6 hPa 0,0 l/m 0 min 0 min 0 W/m 0,0 km/h (0 Bft) 95,74 %
17.01.2020 23:54 5,6 C 4,4 C 3,9 C 89 % 1020,6 hPa 0,0 l/m 0 min 0 min 0 W/m 0,0 km/h (0 Bft) 100,00 %
17.01.2020 23:56 5,6 C 4,4 C 3,3 C 89 % 1020,7 hPa 0,0 l/m 0 min 0 min 0 W/m 0,0 km/h (0 Bft) 97,87 %
17.01.2020 23:58 5,5 C 4,4 C 3,3 C 89 % 1020,7 hPa 0,0 l/m 0 min 0 min 0 W/m 0,0 km/h (0 Bft) 95,74 %
_ Min-Zeit 23:58 23:42 23:56 21:16 14:22 - - - - 11:18 02:46
Minimum _ 5,5 C 4,4 C 3,3 C 85 % 1014,7 hPa - - - - 0,0 km/h (0 Bft) 48,72 %
_ Max-Zeit 13:20 11:10 11:10 14:50 23:56 14:12 16:28 12:54 11:16 00:54 00:38
Maximum _ 9,5 C 8,9 C 8,3 C 94 % 1020,7 hPa 0,2 l/m 2 min 2 min 112 W/m 38,6 km/h
O-SO (5 Bft)
100,00 %
Durchschnitt _ 8,1 C 7,2 C 6,6 C 89 % 1017,0 hPa #0,8 l/m #14 min. #1:42 h 32 W/m 13,7 km/h (3 Bft) 97,30 %
© 2020 W. Hausmann